Darstellungsparameter: Aktuell verwendete Einstellungen:
Skalierung der Graphiken ... ?
xyx+y,   Skalierungsfaktor:      Skalierung: Modus: x, Faktor: 1
Darstellungszeitraum ... ?
Vom - - bis: - -   Zeitraum: 17.02.2020 - 23.02.2020
Min/Max/Avg-Anzeige ... ?
Zeige MMA aktuell
Zeige MMA Monat
Zeige MMA alles
Zeige --A aktuell
Zeige --A Monat
Zeige --A alles
Keine MMA-Anzeige
MMA:
Keine MMA-Graphiken
MMA-Basis: 17.02.2020 - 23.02.2020
Quicknavigation für Darstellung... ?
Tage:      1T, 2T, 3T, 5T -1T -2T -3T -5T +1T +2T +3T +5T
Wochen: 1W, 2W, 3W -1W -2W -3W +1W +2W +3W
Monate: 1M, 3M, 6M -1M -3M -6M +1M +3M +6M
Jahre:    1J, 3J, 5J, 10J -1J -3J -5J -10J +1J +3J +5J +10J
Nutze für die Darstellung ... ?
Originaldaten oder Mittelwerte auf ...
Stundenbasis Tagesbasis Wochenbasis
Monatsbasis Jahresbasis      Datenbasis: Original-Daten
Darstellen als:
Statistik (Auto) Statistik J:M      Darstellung:
Zur Graphik,    zurück zur Übersicht aller Sensoren.
 
Tabellarische Datenbersicht: ?
 
Sensor: Nr:Datum:Temp:Feuchte:Taupunkt:
Aussen-T/F 1 17-02-2020 00:00:00 10.3 C 86 % 8.06 C
2 17-02-2020 00:05:00 10.2 C 87 % 8.14 C
3 17-02-2020 00:10:00 10.2 C 87 % 8.14 C
4 17-02-2020 00:15:00 10.1 C 88 % 8.21 C
5 17-02-2020 00:20:00 10 C 89 % 8.27 C
6 17-02-2020 00:25:00 9.9 C 89 % 8.17 C
7 17-02-2020 00:30:00 9.8 C 89 % 8.08 C
8 17-02-2020 00:35:00 9.8 C 89 % 8.08 C
9 17-02-2020 00:40:00 9.8 C 89 % 8.08 C
10 17-02-2020 00:45:00 9.8 C 89 % 8.08 C
11 17-02-2020 00:50:00 9.8 C 88 % 7.91 C
12 17-02-2020 00:55:00 9.8 C 88 % 7.91 C
13 17-02-2020 01:00:00 9.7 C 88 % 7.81 C
14 17-02-2020 01:05:00 9.7 C 88 % 7.81 C
15 17-02-2020 01:10:00 9.7 C 88 % 7.81 C
16 17-02-2020 01:15:00 9.6 C 88 % 7.71 C
17 17-02-2020 01:20:00 9.6 C 87 % 7.55 C
18 17-02-2020 01:25:00 9.5 C 87 % 7.45 C
19 17-02-2020 01:30:00 9.5 C 87 % 7.45 C
20 17-02-2020 01:35:00 9.4 C 86 % 7.18 C
21 17-02-2020 01:40:00 9.3 C 86 % 7.08 C
22 17-02-2020 01:45:00 9.3 C 87 % 7.25 C
23 17-02-2020 01:50:00 9.2 C 88 % 7.32 C
24 17-02-2020 01:55:00 9.1 C 89 % 7.39 C
25 17-02-2020 02:00:00 9 C 90 % 7.45 C
Sensor: Nr:Datum:Temp:Feuchte:Taupunkt:
Aussen-T/F 26 17-02-2020 02:05:00 8.9 C 91 % 7.51 C
27 17-02-2020 02:10:00 8.8 C 90 % 7.25 C
28 17-02-2020 02:15:00 8.7 C 89 % 6.99 C
29 17-02-2020 02:20:00 8.6 C 86 % 6.39 C
30 17-02-2020 02:25:00 8.6 C 86 % 6.39 C
31 17-02-2020 02:30:00 8.4 C 86 % 6.2 C
32 17-02-2020 02:35:00 8.3 C 83 % 5.59 C
33 17-02-2020 02:40:00 8.3 C 84 % 5.76 C
34 17-02-2020 02:45:00 8.2 C 83 % 5.49 C
35 17-02-2020 02:50:00 8.2 C 82 % 5.32 C
36 17-02-2020 02:55:00 8.2 C 82 % 5.32 C
37 17-02-2020 03:00:00 8.2 C 82 % 5.32 C
38 17-02-2020 03:05:00 8.3 C 82 % 5.41 C
39 17-02-2020 03:10:00 8.3 C 82 % 5.41 C
40 17-02-2020 03:15:00 8.3 C 82 % 5.41 C
41 17-02-2020 03:20:00 8.3 C 82 % 5.41 C
42 17-02-2020 03:25:00 8.3 C 83 % 5.59 C
43 17-02-2020 03:30:00 8.3 C 83 % 5.59 C
44 17-02-2020 03:35:00 8.3 C 83 % 5.59 C
45 17-02-2020 03:40:00 8.3 C 82 % 5.41 C
46 17-02-2020 03:45:00 8.4 C 82 % 5.51 C
47 17-02-2020 03:50:00 8.4 C 82 % 5.51 C
48 17-02-2020 03:55:00 8.4 C 82 % 5.51 C
49 17-02-2020 04:00:00 8.4 C 82 % 5.51 C
50 17-02-2020 04:05:00 8.4 C 82 % 5.51 C
Sensor: Nr:Datum:Temp:Feuchte:Taupunkt:
Aussen-T/F 51 17-02-2020 04:10:00 8.3 C 82 % 5.41 C
52 17-02-2020 04:15:00 8.3 C 82 % 5.41 C
53 17-02-2020 04:20:00 8.3 C 82 % 5.41 C
54 17-02-2020 04:25:00 8.3 C 82 % 5.41 C
55 17-02-2020 04:30:00 8.3 C 83 % 5.59 C
56 17-02-2020 04:35:00 8.3 C 83 % 5.59 C
57 17-02-2020 04:40:00 8.2 C 83 % 5.49 C
58 17-02-2020 04:45:00 8.2 C 83 % 5.49 C
59 17-02-2020 04:50:00 8.2 C 83 % 5.49 C
60 17-02-2020 04:55:00 8.2 C 84 % 5.66 C
61 17-02-2020 05:00:00 8.1 C 84 % 5.56 C
62 17-02-2020 05:05:00 8.1 C 84 % 5.56 C
63 17-02-2020 05:10:00 8.1 C 84 % 5.56 C
64 17-02-2020 05:15:00 8.1 C 84 % 5.56 C
65 17-02-2020 05:20:00 8.1 C 84 % 5.56 C
66 17-02-2020 05:25:00 8.1 C 84 % 5.56 C
67 17-02-2020 05:30:00 8.1 C 85 % 5.73 C
68 17-02-2020 05:35:00 8 C 85 % 5.64 C
69 17-02-2020 05:40:00 7.9 C 85 % 5.54 C
70 17-02-2020 05:45:00 7.9 C 85 % 5.54 C
71 17-02-2020 05:50:00 8 C 85 % 5.64 C
72 17-02-2020 05:55:00 7.9 C 85 % 5.54 C
73 17-02-2020 06:00:00 7.9 C 86 % 5.71 C
74 17-02-2020 06:05:00 7.9 C 86 % 5.71 C
75 17-02-2020 06:10:00 7.9 C 86 % 5.71 C
Sensor: Nr:Datum:Temp:Feuchte:Taupunkt:
Aussen-T/F 76 17-02-2020 06:15:00 7.9 C 86 % 5.71 C
77 17-02-2020 06:20:00 7.9 C 86 % 5.71 C
78 17-02-2020 06:25:00 8 C 86 % 5.81 C
79 17-02-2020 06:30:00 8.1 C 86 % 5.9 C
80 17-02-2020 06:35:00 8.2 C 85 % 5.83 C
81 17-02-2020 06:40:00 8.2 C 85 % 5.83 C
82 17-02-2020 06:45:00 8.2 C 85 % 5.83 C
83 17-02-2020 06:50:00 8.2 C 85 % 5.83 C
84 17-02-2020 06:55:00 8.2 C 85 % 5.83 C
85 17-02-2020 07:00:00 8.3 C 85 % 5.93 C
86 17-02-2020 07:05:00 8.3 C 85 % 5.93 C
87 17-02-2020 07:10:00 8.3 C 85 % 5.93 C
88 17-02-2020 07:15:00 8.3 C 85 % 5.93 C
89 17-02-2020 07:20:00 8.2 C 85 % 5.83 C
90 17-02-2020 07:25:00 8.2 C 85 % 5.83 C
91 17-02-2020 07:30:00 8.1 C 85 % 5.73 C
92 17-02-2020 07:35:00 8.1 C 86 % 5.9 C
93 17-02-2020 07:40:00 8.1 C 86 % 5.9 C
94 17-02-2020 07:45:00 8.1 C 86 % 5.9 C
95 17-02-2020 07:50:00 8.1 C 86 % 5.9 C
96 17-02-2020 07:55:00 8 C 86 % 5.81 C
97 17-02-2020 08:00:00 7.9 C 86 % 5.71 C
98 17-02-2020 08:05:00 7.9 C 86 % 5.71 C
99 17-02-2020 08:10:00 7.9 C 86 % 5.71 C
100 17-02-2020 08:15:00 8 C 86 % 5.81 C
Sensor: Nr:Datum:Temp:Feuchte:Taupunkt:
Aussen-T/F 101 17-02-2020 08:20:00 8.1 C 86 % 5.9 C
102 17-02-2020 08:25:00 8.1 C 86 % 5.9 C
103 17-02-2020 08:30:00 8.1 C 86 % 5.9 C
104 17-02-2020 08:35:00 8.2 C 86 % 6 C
105 17-02-2020 08:40:00 8.1 C 86 % 5.9 C
106 17-02-2020 08:45:00 8.2 C 85 % 5.83 C
107 17-02-2020 08:50:00 8.3 C 85 % 5.93 C
108 17-02-2020 08:55:00 8.4 C 85 % 6.03 C
109 17-02-2020 09:00:00 8.5 C 85 % 6.13 C
110 17-02-2020 09:05:00 8.6 C 84 % 6.05 C
111 17-02-2020 09:10:00 8.6 C 84 % 6.05 C
112 17-02-2020 09:15:00 8.7 C 83 % 5.98 C
113 17-02-2020 09:20:00 8.7 C 83 % 5.98 C
114 17-02-2020 09:25:00 8.7 C 83 % 5.98 C
115 17-02-2020 09:30:00 8.8 C 83 % 6.08 C
116 17-02-2020 09:35:00 8.8 C 83 % 6.08 C
117 17-02-2020 09:40:00 8.8 C 84 % 6.25 C
118 17-02-2020 09:45:00 8.8 C 84 % 6.25 C
119 17-02-2020 09:50:00 8.7 C 83 % 5.98 C
120 17-02-2020 09:55:00 8.7 C 83 % 5.98 C
121 17-02-2020 10:00:00 8.7 C 83 % 5.98 C
122 17-02-2020 10:05:00 8.7 C 83 % 5.98 C
123 17-02-2020 10:10:00 8.8 C 83 % 6.08 C
124 17-02-2020 10:15:00 8.8 C 82 % 5.9 C
125 17-02-2020 10:20:00 8.8 C 82 % 5.9 C
Sensor: Nr:Datum:Temp:Feuchte:Taupunkt:
Aussen-T/F 126 17-02-2020 10:25:00 8.9 C 83 % 6.17 C
127 17-02-2020 10:30:00 9 C 82 % 6.1 C
128 17-02-2020 10:35:00 9.1 C 83 % 6.37 C
129 17-02-2020 10:40:00 9.1 C 83 % 6.37 C
130 17-02-2020 10:45:00 9.2 C 82 % 6.29 C
131 17-02-2020 10:50:00 9.2 C 82 % 6.29 C
132 17-02-2020 10:55:00 9.3 C 82 % 6.39 C
133 17-02-2020 11:00:00 9.3 C 81 % 6.21 C
134 17-02-2020 11:05:00 9.3 C 80 % 6.03 C
135 17-02-2020 11:10:00 9.3 C 79 % 5.85 C
136 17-02-2020 11:15:00 9.4 C 79 % 5.95 C
137 17-02-2020 11:20:00 9.4 C 80 % 6.13 C
138 17-02-2020 11:25:00 9.4 C 79 % 5.95 C
139 17-02-2020 11:30:00 9.5 C 79 % 6.05 C
140 17-02-2020 11:35:00 9.5 C 78 % 5.86 C
141 17-02-2020 11:40:00 9.6 C 78 % 5.96 C
142 17-02-2020 11:45:00 9.5 C 78 % 5.86 C
143 17-02-2020 11:50:00 9.5 C 78 % 5.86 C
144 17-02-2020 11:55:00 9.5 C 77 % 5.68 C
145 17-02-2020 12:00:00 9.5 C 78 % 5.86 C
146 17-02-2020 12:05:00 9.6 C 77 % 5.77 C
147 17-02-2020 12:10:00 9.6 C 77 % 5.77 C
148 17-02-2020 12:15:00 9.6 C 77 % 5.77 C
149 17-02-2020 12:20:00 9.6 C 76 % 5.58 C
150 17-02-2020 12:25:00 9.5 C 75 % 5.3 C
Sensor: Nr:Datum:Temp:Feuchte:Taupunkt:
Aussen-T/F 151 17-02-2020 12:30:00 9.5 C 75 % 5.3 C
152 17-02-2020 12:35:00 9.5 C 76 % 5.49 C
153 17-02-2020 12:40:00 9.5 C 76 % 5.49 C
154 17-02-2020 12:45:00 9.6 C 75 % 5.39 C
155 17-02-2020 12:50:00 9.6 C 74 % 5.2 C
156 17-02-2020 12:55:00 9.6 C 75 % 5.39 C
157 17-02-2020 13:00:00 9.6 C 74 % 5.2 C
158 17-02-2020 13:05:00 9.7 C 74 % 5.3 C
159 17-02-2020 13:10:00 9.8 C 74 % 5.39 C
160 17-02-2020 13:15:00 9.8 C 73 % 5.2 C
161 17-02-2020 13:20:00 9.8 C 74 % 5.39 C
162 17-02-2020 13:25:00 10 C 74 % 5.59 C
163 17-02-2020 13:30:00 10.2 C 73 % 5.58 C
164 17-02-2020 13:35:00 10.2 C 74 % 5.78 C
165 17-02-2020 13:40:00 10.3 C 74 % 5.88 C
166 17-02-2020 13:45:00 10.3 C 74 % 5.88 C
167 17-02-2020 13:50:00 10.4 C 73 % 5.78 C
168 17-02-2020 13:55:00 10.3 C 73 % 5.68 C
169 17-02-2020 14:00:00 10.3 C 73 % 5.68 C
170 17-02-2020 14:05:00 10.2 C 75 % 5.97 C
171 17-02-2020 14:10:00 10.3 C 74 % 5.88 C
172 17-02-2020 14:15:00 10.3 C 75 % 6.07 C
173 17-02-2020 14:20:00 10.4 C 74 % 5.97 C
174 17-02-2020 14:25:00 10.5 C 74 % 6.07 C
175 17-02-2020 14:30:00 10.6 C 74 % 6.17 C
Sensor: Nr:Datum:Temp:Feuchte:Taupunkt:
Aussen-T/F 176 17-02-2020 14:35:00 10.6 C 73 % 5.97 C
177 17-02-2020 14:40:00 10.6 C 74 % 6.17 C
178 17-02-2020 14:45:00 10.6 C 73 % 5.97 C
179 17-02-2020 14:50:00 10.6 C 74 % 6.17 C
180 17-02-2020 14:55:00 10.5 C 74 % 6.07 C
181 17-02-2020 15:00:00 10.5 C 74 % 6.07 C
182 17-02-2020 15:05:00 10.6 C 74 % 6.17 C
183 17-02-2020 15:10:00 10.6 C 74 % 6.17 C
184 17-02-2020 15:15:00 10.7 C 73 % 6.07 C
185 17-02-2020 15:20:00 10.6 C 74 % 6.17 C
186 17-02-2020 15:25:00 10.7 C 74 % 6.26 C
187 17-02-2020 15:30:00 10.7 C 73 % 6.07 C
188 17-02-2020 15:35:00 10.7 C 74 % 6.26 C
189 17-02-2020 15:40:00 10.8 C 73 % 6.16 C
190 17-02-2020 15:45:00 10.9 C 73 % 6.26 C
191 17-02-2020 15:50:00 10.9 C 72 % 6.06 C
192 17-02-2020 15:55:00 11.1 C 72 % 6.25 C
193 17-02-2020 16:00:00 11.1 C 72 % 6.25 C
194 17-02-2020 16:05:00 11.1 C 71 % 6.05 C
195 17-02-2020 16:10:00 10.9 C 72 % 6.06 C
196 17-02-2020 16:15:00 10.8 C 72 % 5.96 C
197 17-02-2020 16:20:00 10.8 C 73 % 6.16 C
198 17-02-2020 16:25:00 10.8 C 72 % 5.96 C
199 17-02-2020 16:30:00 10.8 C 73 % 6.16 C
200 17-02-2020 16:35:00 10.8 C 73 % 6.16 C
Sensor: Nr:Datum:Temp:Feuchte:Taupunkt:
Aussen-T/F 201 17-02-2020 16:40:00 11 C 73 % 6.35 C
202 17-02-2020 16:45:00 11.2 C 71 % 6.14 C
203 17-02-2020 16:50:00 11.2 C 71 % 6.14 C
204 17-02-2020 16:55:00 11.1 C 70 % 5.84 C
205 17-02-2020 17:00:00 10.9 C 71 % 5.86 C
206 17-02-2020 17:05:00 10.8 C 71 % 5.76 C
207 17-02-2020 17:10:00 10.6 C 71 % 5.57 C
208 17-02-2020 17:15:00 10.6 C 72 % 5.77 C
209 17-02-2020 17:20:00 10.4 C 73 % 5.78 C
210 17-02-2020 17:25:00 10.4 C 73 % 5.78 C
211 17-02-2020 17:30:00 10.1 C 76 % 6.07 C
212 17-02-2020 17:35:00 9.2 C 82 % 6.29 C
213 17-02-2020 17:40:00 8.4 C 82 % 5.51 C
214 17-02-2020 17:45:00 7.9 C 84 % 5.37 C
215 17-02-2020 17:50:00 7.7 C 86 % 5.51 C
216 17-02-2020 17:55:00 7.5 C 86 % 5.31 C
217 17-02-2020 18:00:00 7.4 C 85 % 5.05 C
218 17-02-2020 18:05:00 7.4 C 85 % 5.05 C
219 17-02-2020 18:10:00 7.4 C 85 % 5.05 C
220 17-02-2020 18:15:00 7.4 C 84 % 4.88 C
221 17-02-2020 18:20:00 7.4 C 84 % 4.88 C
222 17-02-2020 18:25:00 7.4 C 84 % 4.88 C
223 17-02-2020 18:30:00 7.3 C 84 % 4.78 C
224 17-02-2020 18:35:00 7.3 C 84 % 4.78 C
225 17-02-2020 18:40:00 7.1 C 84 % 4.58 C
Sensor: Nr:Datum:Temp:Feuchte:Taupunkt:
Aussen-T/F 226 17-02-2020 18:45:00 7.1 C 84 % 4.58 C
227 17-02-2020 18:50:00 7.1 C 84 % 4.58 C
228 17-02-2020 18:55:00 7.2 C 83 % 4.51 C
229 17-02-2020 19:00:00 7.2 C 84 % 4.68 C
230 17-02-2020 19:05:00 7.1 C 83 % 4.41 C
231 17-02-2020 19:10:00 7 C 84 % 4.49 C
232 17-02-2020 19:15:00 6.9 C 84 % 4.39 C
233 17-02-2020 19:20:00 6.8 C 85 % 4.46 C
234 17-02-2020 19:25:00 6.7 C 85 % 4.36 C
235 17-02-2020 19:30:00 6.6 C 86 % 4.43 C
236 17-02-2020 19:35:00 6.5 C 86 % 4.33 C
237 17-02-2020 19:40:00 6.4 C 87 % 4.4 C
238 17-02-2020 19:45:00 6.4 C 87 % 4.4 C
239 17-02-2020 19:50:00 6.5 C 87 % 4.5 C
240 17-02-2020 19:55:00 6.5 C 87 % 4.5 C
241 17-02-2020 20:00:00 6.3 C 87 % 4.3 C
242 17-02-2020 20:05:00 6.2 C 87 % 4.2 C
243 17-02-2020 20:10:00 6 C 87 % 4 C
244 17-02-2020 20:15:00 5.8 C 88 % 3.97 C
245 17-02-2020 20:20:00 5.7 C 88 % 3.87 C
246 17-02-2020 20:25:00 5.5 C 89 % 3.84 C
247 17-02-2020 20:30:00 5.3 C 89 % 3.64 C
248 17-02-2020 20:35:00 5.2 C 90 % 3.7 C
249 17-02-2020 20:40:00 5.1 C 90 % 3.6 C
250 17-02-2020 20:45:00 5.1 C 91 % 3.76 C
Sensor: Nr:Datum:Temp:Feuchte:Taupunkt:
Aussen-T/F 251 17-02-2020 20:50:00 4.9 C 91 % 3.56 C
252 17-02-2020 20:55:00 4.9 C 91 % 3.56 C
253 17-02-2020 21:00:00 4.9 C 92 % 3.71 C
254 17-02-2020 21:05:00 4.9 C 92 % 3.71 C
255 17-02-2020 21:10:00 5.1 C 93 % 4.06 C
256 17-02-2020 21:15:00 5.2 C 93 % 4.16 C
257 17-02-2020 21:20:00 5.3 C 93 % 4.26 C
258 17-02-2020 21:25:00 5.4 C 93 % 4.36 C
259 17-02-2020 21:30:00 5.5 C 94 % 4.61 C
260 17-02-2020 21:35:00 5.6 C 94 % 4.71 C
261 17-02-2020 21:40:00 5.6 C 93 % 4.56 C
262 17-02-2020 21:45:00 5.6 C 93 % 4.56 C
263 17-02-2020 21:50:00 5.6 C 93 % 4.56 C
264 17-02-2020 21:55:00 5.6 C 93 % 4.56 C
265 17-02-2020 22:00:00 5.6 C 93 % 4.56 C
266 17-02-2020 22:05:00 5.7 C 94 % 4.81 C
267 17-02-2020 22:10:00 6 C 94 % 5.11 C
268 17-02-2020 22:15:00 6.2 C 94 % 5.31 C
269 17-02-2020 22:20:00 6.5 C 93 % 5.45 C
270 17-02-2020 22:25:00 6.8 C 92 % 5.59 C
271 17-02-2020 22:30:00 7.1 C 90 % 5.57 C
272 17-02-2020 22:35:00 7.3 C 89 % 5.61 C
273 17-02-2020 22:40:00 7.6 C 88 % 5.74 C
274 17-02-2020 22:45:00 7.7 C 86 % 5.51 C
275 17-02-2020 22:50:00 7.9 C 85 % 5.54 C
Sensor: Nr:Datum:Temp:Feuchte:Taupunkt:
Aussen-T/F 276 17-02-2020 22:55:00 8.1 C 84 % 5.56 C
277 17-02-2020 23:00:00 8.2 C 83 % 5.49 C
278 17-02-2020 23:05:00 8.3 C 83 % 5.59 C
279 17-02-2020 23:10:00 8.3 C 83 % 5.59 C
280 17-02-2020 23:15:00 8.2 C 83 % 5.49 C
281 17-02-2020 23:20:00 8.2 C 84 % 5.66 C
282 17-02-2020 23:25:00 8.1 C 84 % 5.56 C
283 17-02-2020 23:30:00 7.9 C 85 % 5.54 C
284 17-02-2020 23:35:00 7.8 C 85 % 5.44 C
285 17-02-2020 23:40:00 7.8 C 84 % 5.27 C
286 17-02-2020 23:45:00 7.8 C 84 % 5.27 C
287 17-02-2020 23:50:00 7.8 C 83 % 5.1 C
288 17-02-2020 23:55:00 7.8 C 82 % 4.92 C
289 18-02-2020 00:00:00 7.8 C 83 % 5.1 C
290 18-02-2020 00:05:00 7.8 C 82 % 4.92 C
291 18-02-2020 00:10:00 7.9 C 82 % 5.02 C
292 18-02-2020 00:15:00 8 C 81 % 4.94 C
293 18-02-2020 00:20:00 8 C 81 % 4.94 C
294 18-02-2020 00:25:00 8 C 80 % 4.77 C
295 18-02-2020 00:30:00 8.1 C 80 % 4.86 C
296 18-02-2020 00:35:00 8.1 C 79 % 4.68 C
297 18-02-2020 00:40:00 8.1 C 79 % 4.68 C
298 18-02-2020 00:45:00 8.2 C 79 % 4.78 C
299 18-02-2020 00:50:00 8.2 C 79 % 4.78 C
300 18-02-2020 00:55:00 8.1 C 79 % 4.68 C
Sensor: Nr:Datum:Temp:Feuchte:Taupunkt:
Aussen-T/F 301 18-02-2020 01:00:00 8.1 C 79 % 4.68 C
302 18-02-2020 01:05:00 8.2 C 78 % 4.6 C
303 18-02-2020 01:10:00 8.2 C 78 % 4.6 C
304 18-02-2020 01:15:00 8.2 C 79 % 4.78 C
305 18-02-2020 01:20:00 8.2 C 79 % 4.78 C
306 18-02-2020 01:25:00 8.1 C 79 % 4.68 C
307 18-02-2020 01:30:00 8.1 C 79 % 4.68 C
308 18-02-2020 01:35:00 8 C 80 % 4.77 C
309 18-02-2020 01:40:00 8 C 80 % 4.77 C
310 18-02-2020 01:45:00 7.9 C 81 % 4.85 C
311 18-02-2020 01:50:00 7.9 C 81 % 4.85 C
312 18-02-2020 01:55:00 7.9 C 81 % 4.85 C
313 18-02-2020 02:00:00 7.8 C 81 % 4.75 C
314 18-02-2020 02:05:00 7.8 C 81 % 4.75 C
315 18-02-2020 02:10:00 7.8 C 81 % 4.75 C
316 18-02-2020 02:15:00 7.8 C 81 % 4.75 C
317 18-02-2020 02:20:00 7.7 C 81 % 4.65 C
318 18-02-2020 02:25:00 7.6 C 81 % 4.55 C
319 18-02-2020 02:30:00 7.6 C 81 % 4.55 C
320 18-02-2020 02:35:00 7.5 C 81 % 4.46 C
321 18-02-2020 02:40:00 7.4 C 81 % 4.36 C
322 18-02-2020 02:45:00 7.4 C 81 % 4.36 C
323 18-02-2020 02:50:00 7.3 C 81 % 4.26 C
324 18-02-2020 02:55:00 7.3 C 82 % 4.44 C
325 18-02-2020 03:00:00 7.3 C 82 % 4.44 C
Sensor: Nr:Datum:Temp:Feuchte:Taupunkt:
Aussen-T/F 326 18-02-2020 03:05:00 7.3 C 82 % 4.44 C
327 18-02-2020 03:10:00 7.3 C 82 % 4.44 C
328 18-02-2020 03:15:00 7.4 C 82 % 4.53 C
329 18-02-2020 03:20:00 7.5 C 81 % 4.46 C
330 18-02-2020 03:25:00 7.6 C 80 % 4.38 C
331 18-02-2020 03:30:00 7.6 C 81 % 4.55 C
332 18-02-2020 03:35:00 7.6 C 81 % 4.55 C
333 18-02-2020 03:40:00 7.5 C 80 % 4.28 C
334 18-02-2020 03:45:00 7.4 C 81 % 4.36 C
335 18-02-2020 03:50:00 7.3 C 81 % 4.26 C
336 18-02-2020 03:55:00 7.2 C 82 % 4.34 C
337 18-02-2020 04:00:00 7.2 C 82 % 4.34 C
338 18-02-2020 04:05:00 7.1 C 82 % 4.24 C
339 18-02-2020 04:10:00 6.9 C 82 % 4.05 C
340 18-02-2020 04:15:00 6.8 C 82 % 3.95 C
341 18-02-2020 04:20:00 6.8 C 82 % 3.95 C
342 18-02-2020 04:25:00 6.8 C 82 % 3.95 C
343 18-02-2020 04:30:00 6.8 C 82 % 3.95 C
344 18-02-2020 04:35:00 6.7 C 82 % 3.85 C
345 18-02-2020 04:40:00 6.7 C 83 % 4.02 C
346 18-02-2020 04:45:00 6.7 C 83 % 4.02 C
347 18-02-2020 04:50:00 6.7 C 83 % 4.02 C
348 18-02-2020 04:55:00 6.6 C 82 % 3.75 C
349 18-02-2020 05:00:00 6.6 C 83 % 3.92 C
350 18-02-2020 05:05:00 6.6 C 82 % 3.75 C
Sensor: Nr:Datum:Temp:Feuchte:Taupunkt:
Aussen-T/F 351 18-02-2020 05:10:00 6.5 C 82 % 3.66 C
352 18-02-2020 05:15:00 6.4 C 83 % 3.73 C
353 18-02-2020 05:20:00 6.4 C 83 % 3.73 C
354 18-02-2020 05:25:00 6.3 C 83 % 3.63 C
355 18-02-2020 05:30:00 6.4 C 83 % 3.73 C
356 18-02-2020 05:35:00 6.3 C 83 % 3.63 C
357 18-02-2020 05:40:00 6.3 C 83 % 3.63 C
358 18-02-2020 05:45:00 6.3 C 83 % 3.63 C
359 18-02-2020 05:50:00 6.3 C 83 % 3.63 C
360 18-02-2020 05:55:00 6.2 C 84 % 3.7 C
361 18-02-2020 06:00:00 6.2 C 84 % 3.7 C
362 18-02-2020 06:05:00 6.2 C 84 % 3.7 C
363 18-02-2020 06:10:00 6.1 C 84 % 3.61 C
364 18-02-2020 06:15:00 6.1 C 84 % 3.61 C
365 18-02-2020 06:20:00 6 C 85 % 3.67 C
366 18-02-2020 06:25:00 6.1 C 85 % 3.77 C
367 18-02-2020 06:30:00 6.2 C 85 % 3.87 C
368 18-02-2020 06:35:00 6.2 C 84 % 3.7 C
369 18-02-2020 06:40:00 6.2 C 84 % 3.7 C
370 18-02-2020 06:45:00 6.1 C 84 % 3.61 C
371 18-02-2020 06:50:00 6.1 C 84 % 3.61 C
372 18-02-2020 06:55:00 6.1 C 84 % 3.61 C
373 18-02-2020 07:00:00 5.9 C 84 % 3.41 C
374 18-02-2020 07:05:00 5.9 C 84 % 3.41 C
375 18-02-2020 07:10:00 5.8 C 84 % 3.31 C
Sensor: Nr:Datum:Temp:Feuchte:Taupunkt:
Aussen-T/F 376 18-02-2020 07:15:00 5.8 C 85 % 3.48 C
377 18-02-2020 07:20:00 5.9 C 85 % 3.58 C
378 18-02-2020 07:25:00 5.9 C 85 % 3.58 C
379 18-02-2020 07:30:00 5.9 C 85 % 3.58 C
380 18-02-2020 07:35:00 5.8 C 85 % 3.48 C
381 18-02-2020 07:40:00 5.8 C 85 % 3.48 C
382 18-02-2020 07:45:00 5.8 C 85 % 3.48 C
383 18-02-2020 07:50:00 5.8 C 85 % 3.48 C
384 18-02-2020 07:55:00 5.8 C 85 % 3.48 C
385 18-02-2020 08:00:00 5.8 C 85 % 3.48 C
386 18-02-2020 08:05:00 5.8 C 85 % 3.48 C
387 18-02-2020 08:10:00 5.7 C 85 % 3.38 C
388 18-02-2020 08:15:00 5.7 C 84 % 3.21 C
389 18-02-2020 08:20:00 5.7 C 84 % 3.21 C
390 18-02-2020 08:25:00 5.7 C 85 % 3.38 C
391 18-02-2020 08:30:00 5.7 C 86 % 3.55 C
392 18-02-2020 08:35:00 5.7 C 86 % 3.55 C
393 18-02-2020 08:40:00 5.8 C 86 % 3.64 C
394 18-02-2020 08:45:00 5.8 C 86 % 3.64 C
395 18-02-2020 08:50:00 5.8 C 85 % 3.48 C
396 18-02-2020 08:55:00 5.8 C 85 % 3.48 C
397 18-02-2020 09:00:00 5.8 C 85 % 3.48 C
398 18-02-2020 09:05:00 5.9 C 85 % 3.58 C
399 18-02-2020 09:10:00 5.9 C 86 % 3.74 C
400 18-02-2020 09:15:00 5.9 C 86 % 3.74 C
Sensor: Nr:Datum:Temp:Feuchte:Taupunkt:
Aussen-T/F 401 18-02-2020 09:20:00 6 C 85 % 3.67 C
402 18-02-2020 09:25:00 6.1 C 85 % 3.77 C
403 18-02-2020 09:30:00 6.1 C 84 % 3.61 C
404 18-02-2020 09:35:00 6.2 C 84 % 3.7 C
405 18-02-2020 09:40:00 6.2 C 84 % 3.7 C
406 18-02-2020 09:45:00 6.3 C 84 % 3.8 C
407 18-02-2020 09:50:00 6.4 C 83 % 3.73 C
408 18-02-2020 09:55:00 6.6 C 83 % 3.92 C
409 18-02-2020 10:00:00 6.6 C 82 % 3.75 C
410 18-02-2020 10:05:00 6.7 C 81 % 3.68 C
411 18-02-2020 10:10:00 6.7 C 81 % 3.68 C
412 18-02-2020 10:15:00 6.7 C 81 % 3.68 C
413 18-02-2020 10:20:00 6.7 C 81 % 3.68 C
414 18-02-2020 10:25:00 6.6 C 81 % 3.58 C
415 18-02-2020 10:30:00 6.7 C 81 % 3.68 C
416 18-02-2020 10:35:00 6.8 C 80 % 3.6 C
417 18-02-2020 10:40:00 6.8 C 80 % 3.6 C
418 18-02-2020 10:45:00 6.9 C 79 % 3.52 C
419 18-02-2020 10:50:00 7 C 79 % 3.61 C
420 18-02-2020 10:55:00 7.1 C 79 % 3.71 C
421 18-02-2020 11:00:00 7.2 C 79 % 3.81 C
422 18-02-2020 11:05:00 7.3 C 79 % 3.91 C
423 18-02-2020 11:10:00 7.3 C 79 % 3.91 C
424 18-02-2020 11:15:00 7.3 C 78 % 3.73 C
425 18-02-2020 11:20:00 7.3 C 78 % 3.73 C
Sensor: Nr:Datum:Temp:Feuchte:Taupunkt:
Aussen-T/F 426 18-02-2020 11:25:00 7.3 C 78 % 3.73 C
427 18-02-2020 11:30:00 7.4 C 78 % 3.82 C
428 18-02-2020 11:35:00 7.5 C 78 % 3.92 C
429 18-02-2020 11:40:00 7.6 C 77 % 3.83 C
430 18-02-2020 11:45:00 7.7 C 77 % 3.93 C
431 18-02-2020 11:50:00 7.7 C 77 % 3.93 C
432 18-02-2020 11:55:00 7.8 C 77 % 4.03 C
433 18-02-2020 12:00:00 7.8 C 77 % 4.03 C
434 18-02-2020 12:05:00 7.8 C 77 % 4.03 C
435 18-02-2020 12:10:00 7.9 C 77 % 4.12 C
436 18-02-2020 12:15:00 8.1 C 77 % 4.32 C
437 18-02-2020 12:20:00 8.1 C 77 % 4.32 C
438 18-02-2020 12:25:00 8.1 C 75 % 3.94 C
439 18-02-2020 12:30:00 8.1 C 75 % 3.94 C
440 18-02-2020 12:35:00 8.1 C 75 % 3.94 C
441 18-02-2020 12:40:00 8.1 C 74 % 3.75 C
442 18-02-2020 12:45:00 8.1 C 75 % 3.94 C
443 18-02-2020 12:50:00 8.2 C 76 % 4.23 C
444 18-02-2020 12:55:00 8.4 C 74 % 4.04 C
445 18-02-2020 13:00:00 8.6 C 75 % 4.43 C
446 18-02-2020 13:05:00 8.8 C 74 % 4.43 C
447 18-02-2020 13:10:00 8.8 C 74 % 4.43 C
448 18-02-2020 13:15:00 8.8 C 72 % 4.04 C
449 18-02-2020 13:20:00 8.6 C 73 % 4.04 C
450 18-02-2020 13:25:00 8.5 C 74 % 4.14 C
Sensor: Nr:Datum:Temp:Feuchte:Taupunkt:
Aussen-T/F 451 18-02-2020 13:30:00 8.4 C 74 % 4.04 C
452 18-02-2020 13:35:00 8.3 C 75 % 4.14 C
453 18-02-2020 13:40:00 8.3 C 76 % 4.33 C
454 18-02-2020 13:45:00 8.4 C 76 % 4.42 C
455 18-02-2020 13:50:00 8.6 C 75 % 4.43 C
456 18-02-2020 13:55:00 8.6 C 73 % 4.04 C
457 18-02-2020 14:00:00 8.5 C 74 % 4.14 C
458 18-02-2020 14:05:00 8.4 C 74 % 4.04 C
459 18-02-2020 14:10:00 8.4 C 75 % 4.23 C
460 18-02-2020 14:15:00 8.4 C 76 % 4.42 C
461 18-02-2020 14:20:00 8.3 C 76 % 4.33 C
462 18-02-2020 14:25:00 8.3 C 76 % 4.33 C
463 18-02-2020 14:30:00 8.2 C 76 % 4.23 C
464 18-02-2020 14:35:00 8.2 C 76 % 4.23 C
465 18-02-2020 14:40:00 8.2 C 75 % 4.04 C
466 18-02-2020 14:45:00 8.1 C 76 % 4.13 C
467 18-02-2020 14:50:00 8.2 C 75 % 4.04 C
468 18-02-2020 14:55:00 8.3 C 74 % 3.95 C
469 18-02-2020 15:00:00 8.4 C 75 % 4.23 C
470 18-02-2020 15:05:00 8.6 C 73 % 4.04 C
471 18-02-2020 15:10:00 8.7 C 73 % 4.14 C
472 18-02-2020 15:15:00 8.7 C 74 % 4.33 C
473 18-02-2020 15:20:00 8.7 C 73 % 4.14 C
474 18-02-2020 15:25:00 8.7 C 72 % 3.94 C
475 18-02-2020 15:30:00 8.6 C 72 % 3.85 C
Sensor: Nr:Datum:Temp:Feuchte:Taupunkt:
Aussen-T/F 476 18-02-2020 15:35:00 8.6 C 72 % 3.85 C
477 18-02-2020 15:40:00 8.6 C 73 % 4.04 C
478 18-02-2020 15:45:00 8.6 C 73 % 4.04 C
479 18-02-2020 15:50:00 8.5 C 73 % 3.95 C
480 18-02-2020 15:55:00 8.5 C 73 % 3.95 C
481 18-02-2020 16:00:00 8.6 C 73 % 4.04 C
482 18-02-2020 16:05:00 8.6 C 72 % 3.85 C
483 18-02-2020 16:10:00 8.6 C 73 % 4.04 C
484 18-02-2020 16:15:00 8.6 C 73 % 4.04 C
485 18-02-2020 16:20:00 8.4 C 73 % 3.85 C
486 18-02-2020 16:25:00 8.4 C 73 % 3.85 C
487 18-02-2020 16:30:00 8.4 C 74 % 4.04 C
488 18-02-2020 16:35:00 8.3 C 74 % 3.95 C
489 18-02-2020 16:40:00 8.3 C 74 % 3.95 C
490 18-02-2020 16:45:00 8.3 C 74 % 3.95 C
491 18-02-2020 16:50:00 8.2 C 74 % 3.85 C
492 18-02-2020 16:55:00 8.2 C 75 % 4.04 C
493 18-02-2020 17:00:00 8.2 C 75 % 4.04 C
494 18-02-2020 17:05:00 8.2 C 76 % 4.23 C
495 18-02-2020 17:10:00 8.1 C 76 % 4.13 C
496 18-02-2020 17:15:00 8.1 C 76 % 4.13 C
497 18-02-2020 17:20:00 8.1 C 76 % 4.13 C
498 18-02-2020 17:25:00 8.2 C 76 % 4.23 C
499 18-02-2020 17:30:00 8.2 C 75 % 4.04 C
500 18-02-2020 17:35:00 8.2 C 75 % 4.04 C
Sensor: Nr:Datum:Temp:Feuchte:Taupunkt:
Aussen-T/F 501 18-02-2020 17:40:00 8.2 C 76 % 4.23 C
502 18-02-2020 17:45:00 8.1 C 76 % 4.13 C
503 18-02-2020 17:50:00 8 C 76 % 4.04 C
504 18-02-2020 17:55:00 7.9 C 76 % 3.94 C
505 18-02-2020 18:00:00 7.8 C 77 % 4.03 C
506 18-02-2020 18:05:00 7.8 C 78 % 4.21 C
507 18-02-2020 18:10:00 7.7 C 78 % 4.11 C
508 18-02-2020 18:15:00 7.7 C 78 % 4.11 C
509 18-02-2020 18:20:00 7.6 C 79 % 4.2 C
510 18-02-2020 18:25:00 7.4 C 79 % 4 C
511 18-02-2020 18:30:00 7.4 C 79 % 4 C
512 18-02-2020 18:35:00 7.3 C 79 % 3.91 C
513 18-02-2020 18:40:00 7.2 C 80 % 3.99 C
514 18-02-2020 18:45:00 7.1 C 80 % 3.89 C
515 18-02-2020 18:50:00 7 C 81 % 3.97 C
516 18-02-2020 18:55:00 6.9 C 81 % 3.87 C
517 18-02-2020 19:00:00 6.8 C 81 % 3.77 C
518 18-02-2020 19:05:00 6.7 C 82 % 3.85 C
519 18-02-2020 19:10:00 6.6 C 82 % 3.75 C
520 18-02-2020 19:15:00 6.4 C 82 % 3.56 C
521 18-02-2020 19:20:00 6.3 C 82 % 3.46 C
522 18-02-2020 19:25:00 6.2 C 83 % 3.53 C
523 18-02-2020 19:30:00 6.1 C 84 % 3.61 C
524 18-02-2020 19:35:00 6.1 C 84 % 3.61 C
525 18-02-2020 19:40:00 6.1 C 84 % 3.61 C
Sensor: Nr:Datum:Temp:Feuchte:Taupunkt:
Aussen-T/F 526 18-02-2020 19:45:00 6.2 C 84 % 3.7 C
527 18-02-2020 19:50:00 6.2 C 84 % 3.7 C
528 18-02-2020 19:55:00 6.2 C 84 % 3.7 C
529 18-02-2020 20:00:00 6.3 C 84 % 3.8 C
530 18-02-2020 20:05:00 6.3 C 84 % 3.8 C
531 18-02-2020 20:10:00 6.3 C 83 % 3.63 C
532 18-02-2020 20:15:00 6.2 C 83 % 3.53 C
533 18-02-2020 20:20:00 6.2 C 84 % 3.7 C
534 18-02-2020 20:25:00 6.3 C 84 % 3.8 C
535 18-02-2020 20:30:00 6.6 C 83 % 3.92 C
536 18-02-2020 20:35:00 6.8 C 82 % 3.95 C
537 18-02-2020 20:40:00 6.9 C 82 % 4.05 C
538 18-02-2020 20:45:00 6.9 C 82 % 4.05 C
539 18-02-2020 20:50:00 6.9 C 82 % 4.05 C
540 18-02-2020 20:55:00 6.8 C 82 % 3.95 C
541 18-02-2020 21:00:00 6.8 C 82 % 3.95 C
542 18-02-2020 21:05:00 6.8 C 82 % 3.95 C
543 18-02-2020 21:10:00 6.8 C 82 % 3.95 C
544 18-02-2020 21:15:00 6.8 C 82 % 3.95 C
545 18-02-2020 21:20:00 6.8 C 82 % 3.95 C
546 18-02-2020 21:25:00 6.8 C 83 % 4.12 C
547 18-02-2020 21:30:00 6.9 C 82 % 4.05 C
548 18-02-2020 21:35:00 6.9 C 82 % 4.05 C
549 18-02-2020 21:40:00 6.8 C 82 % 3.95 C
550 18-02-2020 21:45:00 6.8 C 82 % 3.95 C
Sensor: Nr:Datum:Temp:Feuchte:Taupunkt:
Aussen-T/F 551 18-02-2020 21:50:00 6.9 C 83 % 4.22 C
552 18-02-2020 21:55:00 7 C 83 % 4.32 C
553 18-02-2020 22:00:00 7 C 82 % 4.14 C
554 18-02-2020 22:05:00 7 C 82 % 4.14 C
555 18-02-2020 22:10:00 7.2 C 82 % 4.34 C
556 18-02-2020 22:15:00 7.3 C 82 % 4.44 C
557 18-02-2020 22:20:00 7.4 C 82 % 4.53 C
558 18-02-2020 22:25:00 7.4 C 82 % 4.53 C
559 18-02-2020 22:30:00 7.4 C 82 % 4.53 C
560 18-02-2020 22:35:00 7.4 C 83 % 4.71 C
561 18-02-2020 22:40:00 7.4 C 83 % 4.71 C
562 18-02-2020 22:45:00 7.4 C 83 % 4.71 C
563 18-02-2020 22:50:00 7.3 C 83 % 4.61 C
564 18-02-2020 22:55:00 7.3 C 83 % 4.61 C
565 18-02-2020 23:00:00 7.3 C 83 % 4.61 C
566 18-02-2020 23:05:00 7.3 C 83 % 4.61 C
567 18-02-2020 23:10:00 7.3 C 83 % 4.61 C
568 18-02-2020 23:15:00 7.3 C 83 % 4.61 C
569 18-02-2020 23:20:00 7.2 C 83 % 4.51 C
570 18-02-2020 23:25:00 7.2 C 83 % 4.51 C
571 18-02-2020 23:30:00 7.1 C 84 % 4.58 C
572 18-02-2020 23:35:00 7.1 C 84 % 4.58 C
573 18-02-2020 23:40:00 7 C 84 % 4.49 C
574 18-02-2020 23:45:00 7.1 C 84 % 4.58 C
575 18-02-2020 23:50:00 7.1 C 84 % 4.58 C
Sensor: Nr:Datum:Temp:Feuchte:Taupunkt:
Aussen-T/F 576 18-02-2020 23:55:00 7.1 C 84 % 4.58 C
577 19-02-2020 00:00:00 7.1 C 83 % 4.41 C
578 19-02-2020 00:05:00 7 C 84 % 4.49 C
579 19-02-2020 00:10:00 7.1 C 83 % 4.41 C
580 19-02-2020 00:15:00 7.2 C 82 % 4.34 C
581 19-02-2020 00:20:00 7.3 C 82 % 4.44 C
582 19-02-2020 00:25:00 7.4 C 81 % 4.36 C
583 19-02-2020 00:30:00 7.4 C 81 % 4.36 C
584 19-02-2020 00:35:00 7.4 C 81 % 4.36 C
585 19-02-2020 00:40:00 7.4 C 81 % 4.36 C
586 19-02-2020 00:45:00 7.4 C 81 % 4.36 C
587 19-02-2020 00:50:00 7.5 C 81 % 4.46 C
588 19-02-2020 00:55:00 7.6 C 80 % 4.38 C
589 19-02-2020 01:00:00 7.5 C 80 % 4.28 C
590 19-02-2020 01:05:00 7.5 C 81 % 4.46 C
591 19-02-2020 01:10:00 7.4 C 80 % 4.18 C
592 19-02-2020 01:15:00 7.5 C 80 % 4.28 C
593 19-02-2020 01:20:00 7.5 C 80 % 4.28 C
594 19-02-2020 01:25:00 7.4 C 80 % 4.18 C
595 19-02-2020 01:30:00 7.4 C 80 % 4.18 C
596 19-02-2020 01:35:00 7.4 C 80 % 4.18 C
597 19-02-2020 01:40:00 7.4 C 80 % 4.18 C
598 19-02-2020 01:45:00 7.4 C 80 % 4.18 C
599 19-02-2020 01:50:00 7.4 C 80 % 4.18 C
600 19-02-2020 01:55:00 7.4 C 80 % 4.18 C
Sensor: Nr:Datum:Temp:Feuchte:Taupunkt:
Aussen-T/F 601 19-02-2020 02:00:00 7.4 C 80 % 4.18 C
602 19-02-2020 02:05:00 7.5 C 80 % 4.28 C
603 19-02-2020 02:10:00 7.5 C 80 % 4.28 C
604 19-02-2020 02:15:00 7.6 C 80 % 4.38 C
605 19-02-2020 02:20:00 7.7 C 79 % 4.3 C
606 19-02-2020 02:25:00 7.7 C 79 % 4.3 C
607 19-02-2020 02:30:00 7.7 C 80 % 4.47 C
608 19-02-2020 02:35:00 7.7 C 80 % 4.47 C
609 19-02-2020 02:40:00 7.7 C 80 % 4.47 C
610 19-02-2020 02:45:00 7.6 C 81 % 4.55 C
611 19-02-2020 02:50:00 7.6 C 81 % 4.55 C
612 19-02-2020 02:55:00 7.6 C 81 % 4.55 C
613 19-02-2020 03:00:00 7.5 C 81 % 4.46 C
614 19-02-2020 03:05:00 7.5 C 81 % 4.46 C
615 19-02-2020 03:10:00 7.5 C 81 % 4.46 C
616 19-02-2020 03:15:00 7.5 C 82 % 4.63 C
617 19-02-2020 03:20:00 7.4 C 82 % 4.53 C
618 19-02-2020 03:25:00 7.4 C 82 % 4.53 C
619 19-02-2020 03:30:00 7.4 C 83 % 4.71 C
620 19-02-2020 03:35:00 7.4 C 83 % 4.71 C
621 19-02-2020 03:40:00 7.3 C 83 % 4.61 C
622 19-02-2020 03:45:00 7.3 C 84 % 4.78 C
623 19-02-2020 03:50:00 7.2 C 85 % 4.85 C
624 19-02-2020 03:55:00 7.2 C 86 % 5.02 C
625 19-02-2020 04:00:00 7.1 C 86 % 4.92 C
Sensor: Nr:Datum:Temp:Feuchte:Taupunkt:
Aussen-T/F 626 19-02-2020 04:05:00 7 C 87 % 4.99 C
627 19-02-2020 04:10:00 6.9 C 87 % 4.89 C
628 19-02-2020 04:15:00 6.9 C 87 % 4.89 C
629 19-02-2020 04:20:00 6.8 C 87 % 4.79 C
630 19-02-2020 04:25:00 6.8 C 88 % 4.96 C
631 19-02-2020 04:30:00 6.8 C 88 % 4.96 C
632 19-02-2020 04:35:00 6.8 C 88 % 4.96 C
633 19-02-2020 04:40:00 6.8 C 88 % 4.96 C
634 19-02-2020 04:45:00 6.8 C 88 % 4.96 C
635 19-02-2020 04:50:00 6.8 C 88 % 4.96 C
636 19-02-2020 04:55:00 6.8 C 88 % 4.96 C
637 19-02-2020 05:00:00 6.8 C 88 % 4.96 C
638 19-02-2020 05:05:00 6.9 C 88 % 5.05 C
639 19-02-2020 05:10:00 6.9 C 87 % 4.89 C
640 19-02-2020 05:15:00 6.9 C 87 % 4.89 C
641 19-02-2020 05:20:00 6.9 C 87 % 4.89 C
642 19-02-2020 05:25:00 6.9 C 87 % 4.89 C
643 19-02-2020 05:30:00 6.8 C 86 % 4.63 C
644 19-02-2020 05:35:00 6.8 C 86 % 4.63 C
645 19-02-2020 05:40:00 6.8 C 86 % 4.63 C
646 19-02-2020 05:45:00 6.8 C 85 % 4.46 C
647 19-02-2020 05:50:00 6.7 C 85 % 4.36 C
648 19-02-2020 05:55:00 6.7 C 85 % 4.36 C
649 19-02-2020 06:00:00 6.6 C 84 % 4.1 C
650 19-02-2020 06:05:00 6.6 C 84 % 4.1 C
Sensor: Nr:Datum:Temp:Feuchte:Taupunkt:
Aussen-T/F 651 19-02-2020 06:10:00 6.6 C 84 % 4.1 C
652 19-02-2020 06:15:00 6.6 C 85 % 4.26 C
653 19-02-2020 06:20:00 6.5 C 85 % 4.17 C
654 19-02-2020 06:25:00 6.4 C 84 % 3.9 C
655 19-02-2020 06:30:00 6.4 C 84 % 3.9 C
656 19-02-2020 06:35:00 6.4 C 85 % 4.07 C
657 19-02-2020 06:40:00 6.3 C 85 % 3.97 C
658 19-02-2020 06:45:00 6.3 C 85 % 3.97 C
659 19-02-2020 06:50:00 6.2 C 84 % 3.7 C
660 19-02-2020 06:55:00 6.1 C 84 % 3.61 C
661 19-02-2020 07:00:00 6 C 84 % 3.51 C
662 19-02-2020 07:05:00 5.9 C 84 % 3.41 C
663 19-02-2020 07:10:00 6 C 84 % 3.51 C
664 19-02-2020 07:15:00 6 C 84 % 3.51 C
665 19-02-2020 07:20:00 6 C 84 % 3.51 C
666 19-02-2020 07:25:00 6 C 84 % 3.51 C
667 19-02-2020 07:30:00 6.1 C 84 % 3.61 C
668 19-02-2020 07:35:00 6.1 C 84 % 3.61 C
669 19-02-2020 07:40:00 6.1 C 84 % 3.61 C
670 19-02-2020 07:45:00 6 C 84 % 3.51 C
671 19-02-2020 07:50:00 5.9 C 84 % 3.41 C
672 19-02-2020 07:55:00 5.9 C 83 % 3.24 C
673 19-02-2020 08:00:00 5.8 C 83 % 3.14 C
674 19-02-2020 08:05:00 5.8 C 83 % 3.14 C
675 19-02-2020 08:10:00 5.8 C 83 % 3.14 C
Sensor: Nr:Datum:Temp:Feuchte:Taupunkt:
Aussen-T/F 676 19-02-2020 08:15:00 5.7 C 84 % 3.21 C
677 19-02-2020 08:20:00 5.7 C 84 % 3.21 C
678 19-02-2020 08:25:00 5.6 C 83 % 2.95 C
679 19-02-2020 08:30:00 5.5 C 83 % 2.85 C
680 19-02-2020 08:35:00 5.4 C 83 % 2.75 C
681 19-02-2020 08:40:00 5.4 C 83 % 2.75 C
682 19-02-2020 08:45:00 5.4 C 83 % 2.75 C
683 19-02-2020 08:50:00 5.4 C 83 % 2.75 C
684 19-02-2020 08:55:00 5.4 C 83 % 2.75 C
685 19-02-2020 09:00:00 5.4 C 83 % 2.75 C
686 19-02-2020 09:05:00 5.4 C 83 % 2.75 C
687 19-02-2020 09:10:00 5.5 C 83 % 2.85 C
688 19-02-2020 09:15:00 5.5 C 83 % 2.85 C
689 19-02-2020 09:20:00 5.5 C 82 % 2.68 C
690 19-02-2020 09:25:00 5.5 C 83 % 2.85 C
691 19-02-2020 09:30:00 5.5 C 83 % 2.85 C
692 19-02-2020 09:35:00 5.6 C 83 % 2.95 C
693 19-02-2020 09:40:00 5.6 C 82 % 2.78 C
694 19-02-2020 09:45:00 5.7 C 83 % 3.04 C
695 19-02-2020 09:50:00 5.7 C 82 % 2.87 C
696 19-02-2020 09:55:00 5.7 C 82 % 2.87 C
697 19-02-2020 10:00:00 5.7 C 82 % 2.87 C
698 19-02-2020 10:05:00 5.6 C 83 % 2.95 C
699 19-02-2020 10:10:00 5.4 C 83 % 2.75 C
700 19-02-2020 10:15:00 5.3 C 83 % 2.65 C
Sensor: Nr:Datum:Temp:Feuchte:Taupunkt:
Aussen-T/F 701 19-02-2020 10:20:00 5.3 C 84 % 2.82 C
702 19-02-2020 10:25:00 5.4 C 84 % 2.92 C
703 19-02-2020 10:30:00 5.6 C 84 % 3.12 C
704 19-02-2020 10:35:00 5.7 C 83 % 3.04 C
705 19-02-2020 10:40:00 5.8 C 82 % 2.97 C
706 19-02-2020 10:45:00 5.9 C 80 % 2.72 C
707 19-02-2020 10:50:00 6.1 C 80 % 2.92 C
708 19-02-2020 10:55:00 6.2 C 79 % 2.84 C
709 19-02-2020 11:00:00 6.2 C 79 % 2.84 C
710 19-02-2020 11:05:00 6.2 C 80 % 3.01 C
711 19-02-2020 11:10:00 6.2 C 79 % 2.84 C
712 19-02-2020 11:15:00 6.3 C 78 % 2.75 C
713 19-02-2020 11:20:00 6.4 C 78 % 2.85 C
714 19-02-2020 11:25:00 6.5 C 78 % 2.95 C
715 19-02-2020 11:30:00 6.6 C 76 % 2.68 C
716 19-02-2020 11:35:00 6.7 C 75 % 2.59 C
717 19-02-2020 11:40:00 6.7 C 73 % 2.21 C
718 19-02-2020 11:45:00 6.7 C 73 % 2.21 C
719 19-02-2020 11:50:00 6.7 C 73 % 2.21 C
720 19-02-2020 11:55:00 6.8 C 73 % 2.31 C
721 19-02-2020 12:00:00 6.9 C 73 % 2.4 C
722 19-02-2020 12:05:00 6.9 C 72 % 2.21 C
723 19-02-2020 12:10:00 6.9 C 72 % 2.21 C
724 19-02-2020 12:15:00 6.9 C 71 % 2.02 C
725 19-02-2020 12:20:00 6.9 C 71 % 2.02 C
Sensor: Nr:Datum:Temp:Feuchte:Taupunkt:
Aussen-T/F 726 19-02-2020 12:25:00 7 C 71 % 2.11 C
727 19-02-2020 12:30:00 7 C 69 % 1.71 C
728 19-02-2020 12:35:00 7.1 C 70 % 2.01 C
729 19-02-2020 12:40:00 7.1 C 69 % 1.81 C
730 19-02-2020 12:45:00 7.1 C 69 % 1.81 C
731 19-02-2020 12:50:00 7.2 C 69 % 1.9 C
732 19-02-2020 12:55:00 7.2 C 69 % 1.9 C
733 19-02-2020 13:00:00 7.2 C 69 % 1.9 C
734 19-02-2020 13:05:00 7.2 C 69 % 1.9 C
735 19-02-2020 13:10:00 7.3 C 68 % 1.8 C
736 19-02-2020 13:15:00 7.3 C 67 % 1.59 C
737 19-02-2020 13:20:00 7.3 C 65 % 1.17 C
738 19-02-2020 13:25:00 7.4 C 66 % 1.48 C
739 19-02-2020 13:30:00 7.4 C 65 % 1.26 C
740 19-02-2020 13:35:00 7.4 C 65 % 1.26 C
741 19-02-2020 13:40:00 7.4 C 65 % 1.26 C
742 19-02-2020 13:45:00 7.5 C 65 % 1.36 C
743 19-02-2020 13:50:00 7.6 C 66 % 1.67 C
744 19-02-2020 13:55:00 7.7 C 64 % 1.33 C
745 19-02-2020 14:00:00 7.7 C 64 % 1.33 C
746 19-02-2020 14:05:00 7.8 C 64 % 1.43 C
747 19-02-2020 14:10:00 7.8 C 65 % 1.64 C
748 19-02-2020 14:15:00 7.9 C 65 % 1.74 C
749 19-02-2020 14:20:00 7.9 C 64 % 1.52 C
750 19-02-2020 14:25:00 7.8 C 64 % 1.43 C
Sensor: Nr:Datum:Temp:Feuchte:Taupunkt:
Aussen-T/F 751 19-02-2020 14:30:00 7.7 C 65 % 1.55 C
752 19-02-2020 14:35:00 7.6 C 65 % 1.45 C
753 19-02-2020 14:40:00 7.6 C 65 % 1.45 C
754 19-02-2020 14:45:00 7.6 C 66 % 1.67 C
755 19-02-2020 14:50:00 7.6 C 65 % 1.45 C
756 19-02-2020 14:55:00 7.5 C 65 % 1.36 C
757 19-02-2020 15:00:00 7.5 C 65 % 1.36 C
758 19-02-2020 15:05:00 7.6 C 65 % 1.45 C
759 19-02-2020 15:10:00 7.8 C 63 % 1.21 C
760 19-02-2020 15:15:00 7.9 C 63 % 1.3 C
761 19-02-2020 15:20:00 8 C 63 % 1.4 C
762 19-02-2020 15:25:00 8.1 C 62 % 1.27 C
763 19-02-2020 15:30:00 8.1 C 63 % 1.49 C
764 19-02-2020 15:35:00 8 C 63 % 1.4 C
765 19-02-2020 15:40:00 7.9 C 64 % 1.52 C
766 19-02-2020 15:45:00 7.8 C 64 % 1.43 C
767 19-02-2020 15:50:00 7.8 C 64 % 1.43 C
768 19-02-2020 15:55:00 8.1 C 63 % 1.49 C
769 19-02-2020 16:00:00 8.3 C 62 % 1.46 C
770 19-02-2020 16:05:00 8.3 C 62 % 1.46 C
771 19-02-2020 16:10:00 8.2 C 62 % 1.37 C
772 19-02-2020 16:15:00 8.1 C 61 % 1.05 C
773 19-02-2020 16:20:00 8 C 62 % 1.18 C
774 19-02-2020 16:25:00 7.9 C 63 % 1.3 C
775 19-02-2020 16:30:00 7.9 C 62 % 1.08 C
Sensor: Nr:Datum:Temp:Feuchte:Taupunkt:
Aussen-T/F 776 19-02-2020 16:35:00 7.8 C 63 % 1.21 C
777 19-02-2020 16:40:00 7.7 C 64 % 1.33 C
778 19-02-2020 16:45:00 7.7 C 63 % 1.11 C
779 19-02-2020 16:50:00 7.6 C 64 % 1.24 C
780 19-02-2020 16:55:00 7.5 C 65 % 1.36 C
781 19-02-2020 17:00:00 7.4 C 65 % 1.26 C
782 19-02-2020 17:05:00 7.4 C 64 % 1.05 C
783 19-02-2020 17:10:00 7.4 C 65 % 1.26 C
784 19-02-2020 17:15:00 7.3 C 64 % 0.95 C
785 19-02-2020 17:20:00 7.3 C 64 % 0.95 C
786 19-02-2020 17:25:00 7.2 C 65 % 1.07 C
787 19-02-2020 17:30:00 7.1 C 64 % 0.76 C
788 19-02-2020 17:35:00 6.9 C 64 % 0.57 C
789 19-02-2020 17:40:00 6.9 C 65 % 0.79 C
790 19-02-2020 17:45:00 6.8 C 66 % 0.9 C
791 19-02-2020 17:50:00 6.7 C 67 % 1.02 C
792 19-02-2020 17:55:00 6.4 C 68 % 0.94 C
793 19-02-2020 18:00:00 6.2 C 69 % 0.95 C
794 19-02-2020 18:05:00 5.9 C 71 % 1.06 C
795 19-02-2020 18:10:00 5.7 C 73 % 1.25 C
796 19-02-2020 18:15:00 5.4 C 73 % 0.96 C
797 19-02-2020 18:20:00 5.3 C 75 % 1.24 C
798 19-02-2020 18:25:00 5.1 C 76 % 1.23 C
799 19-02-2020 18:30:00 4.9 C 77 % 1.22 C
800 19-02-2020 18:35:00 4.8 C 78 % 1.3 C
Sensor: Nr:Datum:Temp:Feuchte:Taupunkt:
Aussen-T/F 801 19-02-2020 18:40:00 4.6 C 79 % 1.28 C
802 19-02-2020 18:45:00 4.4 C 79 % 1.09 C
803 19-02-2020 18:50:00 4.2 C 80 % 1.07 C
804 19-02-2020 18:55:00 4.1 C 81 % 1.14 C
805 19-02-2020 19:00:00 3.9 C 81 % 0.95 C
806 19-02-2020 19:05:00 3.8 C 82 % 1.02 C
807 19-02-2020 19:10:00 3.7 C 82 % 0.92 C
808 19-02-2020 19:15:00 3.6 C 82 % 0.82 C
809 19-02-2020 19:20:00 3.4 C 83 % 0.79 C
810 19-02-2020 19:25:00 3.3 C 83 % 0.7 C
811 19-02-2020 19:30:00 3.2 C 83 % 0.6 C
812 19-02-2020 19:35:00 3.2 C 83 % 0.6 C
813 19-02-2020 19:40:00 3.2 C 83 % 0.6 C
814 19-02-2020 19:45:00 3.1 C 83 % 0.5 C
815 19-02-2020 19:50:00 3 C 83 % 0.4 C
816 19-02-2020 19:55:00 2.9 C 84 % 0.47 C
817 19-02-2020 20:00:00 2.8 C 84 % 0.37 C
818 19-02-2020 20:05:00 2.8 C 84 % 0.37 C
819 19-02-2020 20:10:00 2.8 C 84 % 0.37 C
820 19-02-2020 20:15:00 2.7 C 84 % 0.27 C
821 19-02-2020 20:20:00 2.7 C 84 % 0.27 C
822 19-02-2020 20:25:00 2.7 C 84 % 0.27 C
823 19-02-2020 20:30:00 2.7 C 84 % 0.27 C
824 19-02-2020 20:35:00 2.7 C 85 % 0.44 C
825 19-02-2020 20:40:00 2.8 C 85 % 0.54 C
Sensor: Nr:Datum:Temp:Feuchte:Taupunkt:
Aussen-T/F 826 19-02-2020 20:45:00 2.8 C 84 % 0.37 C
827 19-02-2020 20:50:00 2.8 C 84 % 0.37 C
828 19-02-2020 20:55:00 2.9 C 85 % 0.63 C
829 19-02-2020 21:00:00 3.1 C 85 % 0.83 C
830 19-02-2020 21:05:00 3.2 C 84 % 0.76 C
831 19-02-2020 21:10:00 3.3 C 84 % 0.86 C
832 19-02-2020 21:15:00 3.4 C 83 % 0.79 C
833 19-02-2020 21:20:00 3.5 C 82 % 0.72 C
834 19-02-2020 21:25:00 3.5 C 83 % 0.89 C
835 19-02-2020 21:30:00 3.5 C 82 % 0.72 C
836 19-02-2020 21:35:00 3.6 C 83 % 0.99 C
837 19-02-2020 21:40:00 3.8 C 82 % 1.02 C
838 19-02-2020 21:45:00 3.9 C 82 % 1.12 C
839 19-02-2020 21:50:00 4.1 C 81 % 1.14 C
840 19-02-2020 21:55:00 4.2 C 81 % 1.24 C
841 19-02-2020 22:00:00 4.3 C 81 % 1.34 C
842 19-02-2020 22:05:00 4.6 C 80 % 1.46 C
843 19-02-2020 22:10:00 4.8 C 79 % 1.47 C
844 19-02-2020 22:15:00 5.2 C 78 % 1.69 C
845 19-02-2020 22:20:00 5.5 C 77 % 1.8 C
846 19-02-2020 22:25:00 5.7 C 76 % 1.81 C
847 19-02-2020 22:30:00 5.9 C 76 % 2 C
848 19-02-2020 22:35:00 6 C 76 % 2.1 C
849 19-02-2020 22:40:00 6.1 C 76 % 2.2 C
850 19-02-2020 22:45:00 6 C 77 % 2.28 C
Sensor: Nr:Datum:Temp:Feuchte:Taupunkt:
Aussen-T/F 851 19-02-2020 22:50:00 5.9 C 77 % 2.19 C
852 19-02-2020 22:55:00 5.9 C 77 % 2.19 C
853 19-02-2020 23:00:00 5.9 C 78 % 2.37 C
854 19-02-2020 23:05:00 5.8 C 80 % 2.62 C
855 19-02-2020 23:10:00 5.7 C 82 % 2.87 C
856 19-02-2020 23:15:00 5.6 C 83 % 2.95 C
857 19-02-2020 23:20:00 5.5 C 85 % 3.18 C
858 19-02-2020 23:25:00 5.4 C 85 % 3.09 C
859 19-02-2020 23:30:00 5.4 C 86 % 3.25 C
860 19-02-2020 23:35:00 5.3 C 86 % 3.15 C
861 19-02-2020 23:40:00 5.3 C 87 % 3.32 C
862 19-02-2020 23:45:00 5.4 C 87 % 3.41 C
863 19-02-2020 23:50:00 5.4 C 87 % 3.41 C
864 19-02-2020 23:55:00 5.4 C 87 % 3.41 C
865 20-02-2020 00:00:00 5.4 C 87 % 3.41 C
866 20-02-2020 00:05:00 5.5 C 87 % 3.51 C
867 20-02-2020 00:10:00 5.6 C 87 % 3.61 C
868 20-02-2020 00:15:00 5.6 C 87 % 3.61 C
869 20-02-2020 00:20:00 5.6 C 87 % 3.61 C
870 20-02-2020 00:25:00 5.6 C 86 % 3.45 C
871 20-02-2020 00:30:00 5.6 C 87 % 3.61 C
872 20-02-2020 00:35:00 5.8 C 86 % 3.64 C
873 20-02-2020 00:40:00 5.8 C 86 % 3.64 C
874 20-02-2020 00:45:00 5.8 C 86 % 3.64 C
875 20-02-2020 00:50:00 5.9 C 86 % 3.74 C
Sensor: Nr:Datum:Temp:Feuchte:Taupunkt:
Aussen-T/F 876 20-02-2020 00:55:00 5.9 C 86 % 3.74 C
877 20-02-2020 01:00:00 5.9 C 87 % 3.91 C
878 20-02-2020 01:05:00 5.9 C 88 % 4.07 C
879 20-02-2020 01:10:00 5.9 C 88 % 4.07 C
880 20-02-2020 01:15:00 5.8 C 88 % 3.97 C
881 20-02-2020 01:20:00 5.8 C 89 % 4.13 C
882 20-02-2020 01:25:00 5.8 C 89 % 4.13 C
883 20-02-2020 01:30:00 5.8 C 89 % 4.13 C
884 20-02-2020 01:35:00 5.8 C 89 % 4.13 C
885 20-02-2020 01:40:00 5.9 C 89 % 4.23 C
886 20-02-2020 01:45:00 5.9 C 89 % 4.23 C
887 20-02-2020 01:50:00 5.9 C 88 % 4.07 C
888 20-02-2020 01:55:00 5.9 C 88 % 4.07 C
889 20-02-2020 02:00:00 6 C 88 % 4.17 C
890 20-02-2020 02:05:00 6.1 C 88 % 4.27 C
891 20-02-2020 02:10:00 6.1 C 87 % 4.1 C
892 20-02-2020 02:15:00 6.1 C 87 % 4.1 C
893 20-02-2020 02:20:00 6.2 C 87 % 4.2 C
894 20-02-2020 02:25:00 6.2 C 87 % 4.2 C
895 20-02-2020 02:30:00 6.2 C 87 % 4.2 C
896 20-02-2020 02:35:00 6.3 C 86 % 4.14 C
897 20-02-2020 02:40:00 6.3 C 86 % 4.14 C
898 20-02-2020 02:45:00 6.4 C 86 % 4.23 C
899 20-02-2020 02:50:00 6.4 C 86 % 4.23 C
900 20-02-2020 02:55:00 6.4 C 86 % 4.23 C
Sensor: Nr:Datum:Temp:Feuchte:Taupunkt:
Aussen-T/F 901 20-02-2020 03:00:00 6.5 C 86 % 4.33 C
902 20-02-2020 03:05:00 6.5 C 86 % 4.33 C
903 20-02-2020 03:10:00 6.5 C 86 % 4.33 C
904 20-02-2020 03:15:00 6.6 C 86 % 4.43 C
905 20-02-2020 03:20:00 6.6 C 86 % 4.43 C
906 20-02-2020 03:25:00 6.7 C 86 % 4.53 C
907 20-02-2020 03:30:00 6.7 C 86 % 4.53 C
908 20-02-2020 03:35:00 6.8 C 86 % 4.63 C
909 20-02-2020 03:40:00 6.8 C 86 % 4.63 C
910 20-02-2020 03:45:00 6.8 C 86 % 4.63 C
911 20-02-2020 03:50:00 6.8 C 86 % 4.63 C
912 20-02-2020 03:55:00 6.8 C 86 % 4.63 C
913 20-02-2020 04:00:00 6.8 C 86 % 4.63 C
914 20-02-2020 04:05:00 6.8 C 86 % 4.63 C
915 20-02-2020 04:10:00 6.9 C 86 % 4.72 C
916 20-02-2020 04:15:00 6.9 C 86 % 4.72 C
917 20-02-2020 04:20:00 6.9 C 86 % 4.72 C
918 20-02-2020 04:25:00 6.9 C 86 % 4.72 C
919 20-02-2020 04:30:00 7 C 86 % 4.82 C
920 20-02-2020 04:35:00 7 C 86 % 4.82 C
921 20-02-2020 04:40:00 7.1 C 86 % 4.92 C
922 20-02-2020 04:45:00 7.1 C 86 % 4.92 C
923 20-02-2020 04:50:00 7.1 C 86 % 4.92 C
924 20-02-2020 04:55:00 7 C 86 % 4.82 C
925 20-02-2020 05:00:00 7 C 86 % 4.82 C
Sensor: Nr:Datum:Temp:Feuchte:Taupunkt:
Aussen-T/F 926 20-02-2020 05:05:00 7 C 86 % 4.82 C
927 20-02-2020 05:10:00 7 C 86 % 4.82 C
928 20-02-2020 05:15:00 7 C 86 % 4.82 C
929 20-02-2020 05:20:00 7 C 86 % 4.82 C
930 20-02-2020 05:25:00 7.1 C 86 % 4.92 C
931 20-02-2020 05:30:00 7.1 C 86 % 4.92 C
932 20-02-2020 05:35:00 7.1 C 86 % 4.92 C
933 20-02-2020 05:40:00 7.2 C 86 % 5.02 C
934 20-02-2020 05:45:00 7.2 C 86 % 5.02 C
935 20-02-2020 05:50:00 7.2 C 87 % 5.19 C
936 20-02-2020 05:55:00 7.2 C 87 % 5.19 C
937 20-02-2020 06:00:00 7.2 C 87 % 5.19 C
938 20-02-2020 06:05:00 7.2 C 87 % 5.19 C
939 20-02-2020 06:10:00 7.2 C 87 % 5.19 C
940 20-02-2020 06:15:00 7.2 C 87 % 5.19 C
941 20-02-2020 06:20:00 7.2 C 87 % 5.19 C
942 20-02-2020 06:25:00 7.1 C 87 % 5.09 C
943 20-02-2020 06:30:00 7.1 C 88 % 5.25 C
944 20-02-2020 06:35:00 7.1 C 88 % 5.25 C
945 20-02-2020 06:40:00 7.1 C 88 % 5.25 C
946 20-02-2020 06:45:00 7.2 C 88 % 5.35 C
947 20-02-2020 06:50:00 7.2 C 88 % 5.35 C
948 20-02-2020 06:55:00 7.2 C 88 % 5.35 C
949 20-02-2020 07:00:00 7.2 C 88 % 5.35 C
950 20-02-2020 07:05:00 7.2 C 88 % 5.35 C
Sensor: Nr:Datum:Temp:Feuchte:Taupunkt:
Aussen-T/F 951 20-02-2020 07:10:00 7.2 C 88 % 5.35 C
952 20-02-2020 07:15:00 7.2 C 88 % 5.35 C
953 20-02-2020 07:20:00 7.2 C 88 % 5.35 C
954 20-02-2020 07:25:00 7.2 C 88 % 5.35 C
955 20-02-2020 07:30:00 7.2 C 89 % 5.51 C
956 20-02-2020 07:35:00 7.2 C 89 % 5.51 C
957 20-02-2020 07:40:00 7.2 C 89 % 5.51 C
958 20-02-2020 07:45:00 7.2 C 89 % 5.51 C
959 20-02-2020 07:50:00 7.2 C 89 % 5.51 C
960 20-02-2020 07:55:00 7.2 C 89 % 5.51 C
961 20-02-2020 08:00:00 7.2 C 89 % 5.51 C
962 20-02-2020 08:05:00 7.2 C 89 % 5.51 C
963 20-02-2020 08:10:00 7.2 C 89 % 5.51 C
964 20-02-2020 08:15:00 7.2 C 89 % 5.51 C
965 20-02-2020 08:20:00 7.2 C 89 % 5.51 C
966 20-02-2020 08:25:00 7.2 C 90 % 5.67 C
967 20-02-2020 08:30:00 7.2 C 90 % 5.67 C
968 20-02-2020 08:35:00 7.2 C 90 % 5.67 C
969 20-02-2020 08:40:00 7.2 C 90 % 5.67 C
970 20-02-2020 08:45:00 7.3 C 90 % 5.77 C
971 20-02-2020 08:50:00 7.3 C 90 % 5.77 C
972 20-02-2020 08:55:00 7.4 C 90 % 5.87 C
973 20-02-2020 09:00:00 7.4 C 90 % 5.87 C
974 20-02-2020 09:05:00 7.5 C 90 % 5.97 C
975 20-02-2020 09:10:00 7.6 C 89 % 5.91 C
Sensor: Nr:Datum:Temp:Feuchte:Taupunkt:
Aussen-T/F 976 20-02-2020 09:15:00 7.6 C 89 % 5.91 C
977 20-02-2020 09:20:00 7.7 C 89 % 6 C
978 20-02-2020 09:25:00 7.8 C 88 % 5.94 C
979 20-02-2020 09:30:00 7.8 C 88 % 5.94 C
980 20-02-2020 09:35:00 7.9 C 88 % 6.04 C
981 20-02-2020 09:40:00 8 C 88 % 6.14 C
982 20-02-2020 09:45:00 8.1 C 87 % 6.07 C
983 20-02-2020 09:50:00 8.1 C 87 % 6.07 C
984 20-02-2020 09:55:00 8.2 C 87 % 6.17 C
985 20-02-2020 10:00:00 8.2 C 86 % 6 C
986 20-02-2020 10:05:00 8.3 C 86 % 6.1 C
987 20-02-2020 10:10:00 8.4 C 85 % 6.03 C
988 20-02-2020 10:15:00 8.4 C 85 % 6.03 C
989 20-02-2020 10:20:00 8.6 C 85 % 6.23 C
990 20-02-2020 10:25:00 8.6 C 84 % 6.05 C
991 20-02-2020 10:30:00 8.7 C 83 % 5.98 C
992 20-02-2020 10:35:00 8.8 C 82 % 5.9 C
993 20-02-2020 10:40:00 8.9 C 83 % 6.17 C
994 20-02-2020 10:45:00 8.9 C 82 % 6 C
995 20-02-2020 10:50:00 9 C 81 % 5.92 C
996 20-02-2020 10:55:00 9.1 C 81 % 6.02 C
997 20-02-2020 11:00:00 9.1 C 81 % 6.02 C
998 20-02-2020 11:05:00 9.2 C 82 % 6.29 C
999 20-02-2020 11:10:00 9.3 C 82 % 6.39 C
1000 20-02-2020 11:15:00 9.5 C 81 % 6.41 C
Sensor: Nr:Datum:Temp:Feuchte:Taupunkt:
Aussen-T/F 1001 20-02-2020 11:20:00 9.7 C 81 % 6.6 C
1002 20-02-2020 11:25:00 9.8 C 78 % 6.15 C
1003 20-02-2020 11:30:00 9.8 C 78 % 6.15 C
1004 20-02-2020 11:35:00 9.8 C 77 % 5.97 C
1005 20-02-2020 11:40:00 9.7 C 77 % 5.87 C
1006 20-02-2020 11:45:00 9.7 C 78 % 6.06 C
1007 20-02-2020 11:50:00 9.6 C 78 % 5.96 C
1008 20-02-2020 11:55:00 9.6 C 79 % 6.14 C
1009 20-02-2020 12:00:00 9.5 C 79 % 6.05 C
1010 20-02-2020 12:05:00 9.5 C 79 % 6.05 C
1011 20-02-2020 12:10:00 9.5 C 77 % 5.68 C
1012 20-02-2020 12:15:00 9.6 C 78 % 5.96 C
1013 20-02-2020 12:20:00 9.7 C 76 % 5.68 C
1014 20-02-2020 12:25:00 9.8 C 75 % 5.59 C
1015 20-02-2020 12:30:00 9.9 C 76 % 5.87 C
1016 20-02-2020 12:35:00 9.9 C 75 % 5.68 C
1017 20-02-2020 12:40:00 9.8 C 77 % 5.97 C
1018 20-02-2020 12:45:00 9.7 C 80 % 6.42 C
1019 20-02-2020 12:50:00 9.5 C 82 % 6.59 C
1020 20-02-2020 12:55:00 9.4 C 84 % 6.84 C
1021 20-02-2020 13:00:00 9.4 C 84 % 6.84 C
1022 20-02-2020 13:05:00 9.4 C 83 % 6.66 C
1023 20-02-2020 13:10:00 9.5 C 82 % 6.59 C
1024 20-02-2020 13:15:00 9.6 C 81 % 6.5 C
1025 20-02-2020 13:20:00 9.7 C 80 % 6.42 C
Sensor: Nr:Datum:Temp:Feuchte:Taupunkt:
Aussen-T/F 1026 20-02-2020 13:25:00 9.8 C 80 % 6.52 C
1027 20-02-2020 13:30:00 9.8 C 79 % 6.34 C
1028 20-02-2020 13:35:00 9.9 C 78 % 6.25 C
1029 20-02-2020 13:40:00 10 C 77 % 6.16 C
1030 20-02-2020 13:45:00 9.9 C 79 % 6.43 C
1031 20-02-2020 13:50:00 9.8 C 80 % 6.52 C
1032 20-02-2020 13:55:00 9.9 C 80 % 6.62 C
1033 20-02-2020 14:00:00 10.1 C 77 % 6.26 C
1034 20-02-2020 14:05:00 10.2 C 76 % 6.16 C
1035 20-02-2020 14:10:00 10.2 C 75 % 5.97 C
1036 20-02-2020 14:15:00 10.2 C 76 % 6.16 C
1037 20-02-2020 14:20:00 10.2 C 76 % 6.16 C
1038 20-02-2020 14:25:00 10.1 C 75 % 5.88 C
1039 20-02-2020 14:30:00 10.1 C 76 % 6.07 C
1040 20-02-2020 14:35:00 10.2 C 75 % 5.97 C
1041 20-02-2020 14:40:00 10.3 C 75 % 6.07 C
1042 20-02-2020 14:45:00 10.2 C 74 % 5.78 C
1043 20-02-2020 14:50:00 10.1 C 75 % 5.88 C
1044 20-02-2020 14:55:00 10 C 75 % 5.78 C
1045 20-02-2020 15:00:00 9.9 C 75 % 5.68 C
1046 20-02-2020 15:05:00 9.8 C 76 % 5.78 C
1047 20-02-2020 15:10:00 9.8 C 77 % 5.97 C
1048 20-02-2020 15:15:00 9.9 C 77 % 6.06 C
1049 20-02-2020 15:20:00 9.9 C 76 % 5.87 C
1050 20-02-2020 15:25:00 10.1 C 77 % 6.26 C
Sensor: Nr:Datum:Temp:Feuchte:Taupunkt:
Aussen-T/F 1051 20-02-2020 15:30:00 10.1 C 77 % 6.26 C
1052 20-02-2020 15:35:00 10.1 C 77 % 6.26 C
1053 20-02-2020 15:40:00 10.1 C 77 % 6.26 C
1054 20-02-2020 15:45:00 10.1 C 77 % 6.26 C
1055 20-02-2020 15:50:00 10.1 C 76 % 6.07 C
1056 20-02-2020 15:55:00 9.9 C 76 % 5.87 C
1057 20-02-2020 16:00:00 9.8 C 76 % 5.78 C
1058 20-02-2020 16:05:00 9.8 C 76 % 5.78 C
1059 20-02-2020 16:10:00 9.7 C 76 % 5.68 C
1060 20-02-2020 16:15:00 9.7 C 76 % 5.68 C
1061 20-02-2020 16:20:00 9.7 C 77 % 5.87 C
1062 20-02-2020 16:25:00 9.6 C 77 % 5.77 C
1063 20-02-2020 16:30:00 9.6 C 76 % 5.58 C
1064 20-02-2020 16:35:00 9.5 C 77 % 5.68 C
1065 20-02-2020 16:40:00 9.4 C 77 % 5.58 C
1066 20-02-2020 16:45:00 9.4 C 77 % 5.58 C
1067 20-02-2020 16:50:00 9.4 C 77 % 5.58 C
1068 20-02-2020 16:55:00 9.3 C 77 % 5.48 C
1069 20-02-2020 17:00:00 9.3 C 77 % 5.48 C
1070 20-02-2020 17:05:00 9.3 C 77 % 5.48 C
1071 20-02-2020 17:10:00 9.3 C 77 % 5.48 C
1072 20-02-2020 17:15:00 9.3 C 77 % 5.48 C
1073 20-02-2020 17:20:00 9.4 C 76 % 5.39 C
1074 20-02-2020 17:25:00 9.4 C 76 % 5.39 C
1075 20-02-2020 17:30:00 9.5 C 75 % 5.3 C
Sensor: Nr:Datum:Temp:Feuchte:Taupunkt:
Aussen-T/F 1076 20-02-2020 17:35:00 9.5 C 75 % 5.3 C
1077 20-02-2020 17:40:00 9.5 C 75 % 5.3 C
1078 20-02-2020 17:45:00 9.4 C 75 % 5.2 C
1079 20-02-2020 17:50:00 9.4 C 75 % 5.2 C
1080 20-02-2020 17:55:00 9.4 C 75 % 5.2 C
1081 20-02-2020 18:00:00 9.5 C 75 % 5.3 C
1082 20-02-2020 18:05:00 9.5 C 75 % 5.3 C
1083 20-02-2020 18:10:00 9.4 C 74 % 5.01 C
1084 20-02-2020 18:15:00 9.4 C 75 % 5.2 C
1085 20-02-2020 18:20:00 9.4 C 75 % 5.2 C
1086 20-02-2020 18:25:00 9.5 C 75 % 5.3 C
1087 20-02-2020 18:30:00 9.5 C 75 % 5.3 C
1088 20-02-2020 18:35:00 9.4 C 76 % 5.39 C
1089 20-02-2020 18:40:00 9.3 C 77 % 5.48 C
1090 20-02-2020 18:45:00 9.2 C 79 % 5.75 C
1091 20-02-2020 18:50:00 9.1 C 79 % 5.66 C
1092 20-02-2020 18:55:00 8.9 C 79 % 5.46 C
1093 20-02-2020 19:00:00 8.8 C 80 % 5.55 C
1094 20-02-2020 19:05:00 8.7 C 80 % 5.45 C
1095 20-02-2020 19:10:00 8.5 C 80 % 5.25 C
1096 20-02-2020 19:15:00 8.3 C 80 % 5.06 C
1097 20-02-2020 19:20:00 8.3 C 80 % 5.06 C
1098 20-02-2020 19:25:00 8.3 C 80 % 5.06 C
1099 20-02-2020 19:30:00 8.4 C 79 % 4.98 C
1100 20-02-2020 19:35:00 8.6 C 79 % 5.17 C
Sensor: Nr:Datum:Temp:Feuchte:Taupunkt:
Aussen-T/F 1101 20-02-2020 19:40:00 8.8 C 78 % 5.18 C
1102 20-02-2020 19:45:00 9 C 77 % 5.19 C
1103 20-02-2020 19:50:00 9.1 C 76 % 5.1 C
1104 20-02-2020 19:55:00 9.2 C 75 % 5.01 C
1105 20-02-2020 20:00:00 9.3 C 75 % 5.1 C
1106 20-02-2020 20:05:00 9.4 C 75 % 5.2 C
1107 20-02-2020 20:10:00 9.4 C 75 % 5.2 C
1108 20-02-2020 20:15:00 9.4 C 75 % 5.2 C
1109 20-02-2020 20:20:00 9.4 C 75 % 5.2 C
1110 20-02-2020 20:25:00 9.4 C 75 % 5.2 C
1111 20-02-2020 20:30:00 9.6 C 74 % 5.2 C
1112 20-02-2020 20:35:00 9.6 C 74 % 5.2 C
1113 20-02-2020 20:40:00 9.6 C 74 % 5.2 C
1114 20-02-2020 20:45:00 9.6 C 74 % 5.2 C
1115 20-02-2020 20:50:00 9.7 C 74 % 5.3 C
1116 20-02-2020 20:55:00 9.6 C 74 % 5.2 C
1117 20-02-2020 21:00:00 9.6 C 75 % 5.39 C
1118 20-02-2020 21:05:00 9.6 C 76 % 5.58 C
1119 20-02-2020 21:10:00 9.5 C 76 % 5.49 C
1120 20-02-2020 21:15:00 9.4 C 77 % 5.58 C
1121 20-02-2020 21:20:00 9.3 C 78 % 5.67 C
1122 20-02-2020 21:25:00 9.1 C 79 % 5.66 C
1123 20-02-2020 21:30:00 9.1 C 79 % 5.66 C
1124 20-02-2020 21:35:00 8.9 C 80 % 5.64 C
1125 20-02-2020 21:40:00 8.9 C 80 % 5.64 C
Sensor: Nr:Datum:Temp:Feuchte:Taupunkt:
Aussen-T/F 1126 20-02-2020 21:45:00 8.8 C 81 % 5.72 C
1127 20-02-2020 21:50:00 8.7 C 82 % 5.8 C
1128 20-02-2020 21:55:00 8.7 C 82 % 5.8 C
1129 20-02-2020 22:00:00 8.7 C 83 % 5.98 C
1130 20-02-2020 22:05:00 8.6 C 83 % 5.88 C
1131 20-02-2020 22:10:00 8.6 C 84 % 6.05 C
1132 20-02-2020 22:15:00 8.6 C 84 % 6.05 C
1133 20-02-2020 22:20:00 8.5 C 85 % 6.13 C
1134 20-02-2020 22:25:00 8.5 C 86 % 6.3 C
1135 20-02-2020 22:30:00 8.4 C 87 % 6.37 C
1136 20-02-2020 22:35:00 8.3 C 88 % 6.43 C
1137 20-02-2020 22:40:00 7.9 C 87 % 5.87 C
1138 20-02-2020 22:45:00 7.4 C 86 % 5.22 C
1139 20-02-2020 22:50:00 7.2 C 87 % 5.19 C
1140 20-02-2020 22:55:00 6.9 C 87 % 4.89 C
1141 20-02-2020 23:00:00 6.9 C 87 % 4.89 C
1142 20-02-2020 23:05:00 6.8 C 88 % 4.96 C
1143 20-02-2020 23:10:00 6.7 C 88 % 4.86 C
1144 20-02-2020 23:15:00 6.7 C 88 % 4.86 C
1145 20-02-2020 23:20:00 6.6 C 88 % 4.76 C
1146 20-02-2020 23:25:00 6.5 C 88 % 4.66 C
1147 20-02-2020 23:30:00 6.5 C 88 % 4.66 C
1148 20-02-2020 23:35:00 6.5 C 87 % 4.5 C
1149 20-02-2020 23:40:00 6.4 C 86 % 4.23 C
1150 20-02-2020 23:45:00 6.6 C 85 % 4.26 C
Sensor: Nr:Datum:Temp:Feuchte:Taupunkt:
Aussen-T/F 1151 20-02-2020 23:50:00 6.6 C 85 % 4.26 C
1152 20-02-2020 23:55:00 6.4 C 85 % 4.07 C
1153 21-02-2020 00:00:00 6.2 C 85 % 3.87 C
1154 21-02-2020 00:05:00 5.9 C 86 % 3.74 C
1155 21-02-2020 00:10:00 5.7 C 88 % 3.87 C
1156 21-02-2020 00:15:00 5.6 C 89 % 3.93 C
1157 21-02-2020 00:20:00 5.4 C 89 % 3.74 C
1158 21-02-2020 00:25:00 5.4 C 89 % 3.74 C
1159 21-02-2020 00:30:00 5.3 C 89 % 3.64 C
1160 21-02-2020 00:35:00 5.2 C 88 % 3.38 C
1161 21-02-2020 00:40:00 5.2 C 87 % 3.22 C
1162 21-02-2020 00:45:00 5.1 C 87 % 3.12 C
1163 21-02-2020 00:50:00 5.1 C 86 % 2.96 C
1164 21-02-2020 00:55:00 5.1 C 85 % 2.79 C
1165 21-02-2020 01:00:00 5.1 C 85 % 2.79 C
1166 21-02-2020 01:05:00 5.1 C 85 % 2.79 C
1167 21-02-2020 01:10:00 5.1 C 85 % 2.79 C
1168 21-02-2020 01:15:00 5 C 84 % 2.53 C
1169 21-02-2020 01:20:00 4.9 C 83 % 2.26 C
1170 21-02-2020 01:25:00 4.9 C 82 % 2.09 C
1171 21-02-2020 01:30:00 4.9 C 81 % 1.92 C
1172 21-02-2020 01:35:00 4.8 C 81 % 1.82 C
1173 21-02-2020 01:40:00 4.8 C 82 % 1.99 C
1174 21-02-2020 01:45:00 4.6 C 82 % 1.8 C
1175 21-02-2020 01:50:00 4.5 C 82 % 1.7 C
Sensor: Nr:Datum:Temp:Feuchte:Taupunkt:
Aussen-T/F 1176 21-02-2020 01:55:00 4.4 C 83 % 1.77 C
1177 21-02-2020 02:00:00 4.3 C 83 % 1.67 C
1178 21-02-2020 02:05:00 4.3 C 83 % 1.67 C
1179 21-02-2020 02:10:00 4.2 C 83 % 1.58 C
1180 21-02-2020 02:15:00 4.2 C 83 % 1.58 C
1181 21-02-2020 02:20:00 4.2 C 83 % 1.58 C
1182 21-02-2020 02:25:00 4.2 C 84 % 1.74 C
1183 21-02-2020 02:30:00 4.1 C 85 % 1.81 C
1184 21-02-2020 02:35:00 4.1 C 85 % 1.81 C
1185 21-02-2020 02:40:00 4.2 C 85 % 1.91 C
1186 21-02-2020 02:45:00 4.3 C 85 % 2.01 C
1187 21-02-2020 02:50:00 4.3 C 85 % 2.01 C
1188 21-02-2020 02:55:00 4.3 C 85 % 2.01 C
1189 21-02-2020 03:00:00 4.3 C 85 % 2.01 C
1190 21-02-2020 03:05:00 4.2 C 84 % 1.74 C
1191 21-02-2020 03:10:00 4.3 C 84 % 1.84 C
1192 21-02-2020 03:15:00 4.2 C 84 % 1.74 C
1193 21-02-2020 03:20:00 4.1 C 84 % 1.65 C
1194 21-02-2020 03:25:00 3.9 C 85 % 1.61 C
1195 21-02-2020 03:30:00 3.8 C 85 % 1.52 C
1196 21-02-2020 03:35:00 3.7 C 85 % 1.42 C
1197 21-02-2020 03:40:00 3.6 C 86 % 1.48 C
1198 21-02-2020 03:45:00 3.4 C 87 % 1.45 C
1199 21-02-2020 03:50:00 3.3 C 87 % 1.35 C
1200 21-02-2020 03:55:00 3.2 C 87 % 1.25 C
Sensor: Nr:Datum:Temp:Feuchte:Taupunkt:
Aussen-T/F 1201 21-02-2020 04:00:00 3.1 C 88 % 1.31 C
1202 21-02-2020 04:05:00 2.9 C 88 % 1.11 C
1203 21-02-2020 04:10:00 2.8 C 89 % 1.17 C
1204 21-02-2020 04:15:00 2.8 C 89 % 1.17 C
1205 21-02-2020 04:20:00 2.8 C 89 % 1.17 C
1206 21-02-2020 04:25:00 2.8 C 90 % 1.33 C
1207 21-02-2020 04:30:00 2.8 C 90 % 1.33 C
1208 21-02-2020 04:35:00 2.8 C 90 % 1.33 C
1209 21-02-2020 04:40:00 2.8 C 90 % 1.33 C
1210 21-02-2020 04:45:00 2.9 C 90 % 1.43 C
1211 21-02-2020 04:50:00 2.9 C 89 % 1.27 C
1212 21-02-2020 04:55:00 2.9 C 89 % 1.27 C
1213 21-02-2020 05:00:00 2.9 C 90 % 1.43 C
1214 21-02-2020 05:05:00 2.9 C 89 % 1.27 C
1215 21-02-2020 05:10:00 2.8 C 89 % 1.17 C
1216 21-02-2020 05:15:00 2.8 C 89 % 1.17 C
1217 21-02-2020 05:20:00 2.7 C 90 % 1.23 C
1218 21-02-2020 05:25:00 2.7 C 90 % 1.23 C
1219 21-02-2020 05:30:00 2.7 C 90 % 1.23 C
1220 21-02-2020 05:35:00 2.8 C 90 % 1.33 C
1221 21-02-2020 05:40:00 2.9 C 90 % 1.43 C
1222 21-02-2020 05:45:00 2.9 C 89 % 1.27 C
1223 21-02-2020 05:50:00 2.9 C 89 % 1.27 C
1224 21-02-2020 05:55:00 2.8 C 89 % 1.17 C
1225 21-02-2020 06:00:00 2.8 C 90 % 1.33 C
Sensor: Nr:Datum:Temp:Feuchte:Taupunkt:
Aussen-T/F 1226 21-02-2020 06:05:00 2.9 C 89 % 1.27 C
1227 21-02-2020 06:10:00 2.9 C 89 % 1.27 C
1228 21-02-2020 06:15:00 2.8 C 89 % 1.17 C
1229 21-02-2020 06:20:00 2.7 C 89 % 1.07 C
1230 21-02-2020 06:25:00 2.7 C 89 % 1.07 C
1231 21-02-2020 06:30:00 2.6 C 89 % 0.97 C
1232 21-02-2020 06:35:00 2.5 C 89 % 0.88 C
1233 21-02-2020 06:40:00 2.4 C 90 % 0.93 C
1234 21-02-2020 06:45:00 2.3 C 90 % 0.83 C
1235 21-02-2020 06:50:00 2.3 C 90 % 0.83 C
1236 21-02-2020 06:55:00 2.3 C 90 % 0.83 C
1237 21-02-2020 07:00:00 2.4 C 90 % 0.93 C
1238 21-02-2020 07:05:00 2.5 C 90 % 1.03 C
1239 21-02-2020 07:10:00 2.6 C 89 % 0.97 C
1240 21-02-2020 07:15:00 2.7 C 89 % 1.07 C
1241 21-02-2020 07:20:00 2.7 C 88 % 0.92 C
1242 21-02-2020 07:25:00 2.9 C 87 % 0.96 C
1243 21-02-2020 07:30:00 3.1 C 86 % 0.99 C
1244 21-02-2020 07:35:00 3.2 C 86 % 1.09 C
1245 21-02-2020 07:40:00 3.1 C 86 % 0.99 C
1246 21-02-2020 07:45:00 3.2 C 85 % 0.93 C
1247 21-02-2020 07:50:00 3.2 C 86 % 1.09 C
1248 21-02-2020 07:55:00 3.1 C 86 % 0.99 C
1249 21-02-2020 08:00:00 3 C 86 % 0.89 C
1250 21-02-2020 08:05:00 2.9 C 86 % 0.8 C
Sensor: Nr:Datum:Temp:Feuchte:Taupunkt:
Aussen-T/F 1251 21-02-2020 08:10:00 2.8 C 86 % 0.7 C
1252 21-02-2020 08:15:00 2.7 C 87 % 0.76 C
1253 21-02-2020 08:20:00 2.6 C 87 % 0.66 C
1254 21-02-2020 08:25:00 2.5 C 87 % 0.56 C
1255 21-02-2020 08:30:00 2.4 C 88 % 0.62 C
1256 21-02-2020 08:35:00 2.4 C 89 % 0.78 C
1257 21-02-2020 08:40:00 2.3 C 89 % 0.68 C
1258 21-02-2020 08:45:00 2.4 C 89 % 0.78 C
1259 21-02-2020 08:50:00 2.5 C 90 % 1.03 C
1260 21-02-2020 08:55:00 2.7 C 89 % 1.07 C
1261 21-02-2020 09:00:00 2.8 C 89 % 1.17 C
1262 21-02-2020 09:05:00 2.9 C 89 % 1.27 C
1263 21-02-2020 09:10:00 3.1 C 88 % 1.31 C
1264 21-02-2020 09:15:00 3.1 C 88 % 1.31 C
1265 21-02-2020 09:20:00 3.2 C 88 % 1.41 C
1266 21-02-2020 09:25:00 3.3 C 88 % 1.51 C
1267 21-02-2020 09:30:00 3.4 C 87 % 1.45 C
1268 21-02-2020 09:35:00 3.5 C 87 % 1.55 C
1269 21-02-2020 09:40:00 3.6 C 87 % 1.64 C
1270 21-02-2020 09:45:00 3.6 C 87 % 1.64 C
1271 21-02-2020 09:50:00 3.7 C 87 % 1.74 C
1272 21-02-2020 09:55:00 3.8 C 86 % 1.68 C
1273 21-02-2020 10:00:00 3.9 C 86 % 1.78 C
1274 21-02-2020 10:05:00 3.9 C 85 % 1.61 C
1275 21-02-2020 10:10:00 4 C 85 % 1.71 C
Sensor: Nr:Datum:Temp:Feuchte:Taupunkt:
Aussen-T/F 1276 21-02-2020 10:15:00 4.1 C 85 % 1.81 C
1277 21-02-2020 10:20:00 4.2 C 85 % 1.91 C
1278 21-02-2020 10:25:00 4.2 C 85 % 1.91 C
1279 21-02-2020 10:30:00 4.3 C 86 % 2.17 C
1280 21-02-2020 10:35:00 4.4 C 85 % 2.11 C
1281 21-02-2020 10:40:00 4.6 C 84 % 2.14 C
1282 21-02-2020 10:45:00 4.7 C 84 % 2.23 C
1283 21-02-2020 10:50:00 4.9 C 84 % 2.43 C
1284 21-02-2020 10:55:00 5.1 C 84 % 2.63 C
1285 21-02-2020 11:00:00 5.2 C 83 % 2.56 C
1286 21-02-2020 11:05:00 5.3 C 82 % 2.48 C
1287 21-02-2020 11:10:00 5.4 C 82 % 2.58 C
1288 21-02-2020 11:15:00 5.6 C 82 % 2.78 C
1289 21-02-2020 11:20:00 5.7 C 82 % 2.87 C
1290 21-02-2020 11:25:00 5.8 C 82 % 2.97 C
1291 21-02-2020 11:30:00 5.9 C 81 % 2.9 C
1292 21-02-2020 11:35:00 5.9 C 81 % 2.9 C
1293 21-02-2020 11:40:00 6.1 C 81 % 3.09 C
1294 21-02-2020 11:45:00 6.2 C 80 % 3.01 C
1295 21-02-2020 11:50:00 6.3 C 80 % 3.11 C
1296 21-02-2020 11:55:00 6.5 C 79 % 3.13 C
1297 21-02-2020 12:00:00 6.7 C 80 % 3.5 C
1298 21-02-2020 12:05:00 6.8 C 79 % 3.42 C
1299 21-02-2020 12:10:00 6.9 C 78 % 3.34 C
1300 21-02-2020 12:15:00 7.1 C 78 % 3.53 C
Sensor: Nr:Datum:Temp:Feuchte:Taupunkt:
Aussen-T/F 1301 21-02-2020 12:20:00 7.2 C 78 % 3.63 C
1302 21-02-2020 12:25:00 7.2 C 78 % 3.63 C
1303 21-02-2020 12:30:00 7.3 C 77 % 3.54 C
1304 21-02-2020 12:35:00 7.3 C 77 % 3.54 C
1305 21-02-2020 12:40:00 7.3 C 77 % 3.54 C
1306 21-02-2020 12:45:00 7.3 C 77 % 3.54 C
1307 21-02-2020 12:50:00 7.4 C 78 % 3.82 C
1308 21-02-2020 12:55:00 7.6 C 78 % 4.02 C
1309 21-02-2020 13:00:00 7.7 C 76 % 3.75 C
1310 21-02-2020 13:05:00 7.8 C 76 % 3.84 C
1311 21-02-2020 13:10:00 7.8 C 76 % 3.84 C
1312 21-02-2020 13:15:00 7.8 C 76 % 3.84 C
1313 21-02-2020 13:20:00 7.7 C 76 % 3.75 C
1314 21-02-2020 13:25:00 7.7 C 76 % 3.75 C
1315 21-02-2020 13:30:00 7.8 C 76 % 3.84 C
1316 21-02-2020 13:35:00 7.8 C 76 % 3.84 C
1317 21-02-2020 13:40:00 7.9 C 76 % 3.94 C
1318 21-02-2020 13:45:00 7.8 C 76 % 3.84 C
1319 21-02-2020 13:50:00 7.7 C 76 % 3.75 C
1320 21-02-2020 13:55:00 7.7 C 75 % 3.56 C
1321 21-02-2020 14:00:00 7.7 C 77 % 3.93 C
1322 21-02-2020 14:05:00 7.7 C 76 % 3.75 C
1323 21-02-2020 14:10:00 7.7 C 77 % 3.93 C
1324 21-02-2020 14:15:00 7.8 C 76 % 3.84 C
1325 21-02-2020 14:20:00 7.8 C 76 % 3.84 C
Sensor: Nr:Datum:Temp:Feuchte:Taupunkt:
Aussen-T/F 1326 21-02-2020 14:25:00 7.9 C 76 % 3.94 C
1327 21-02-2020 14:30:00 8.1 C 75 % 3.94 C
1328 21-02-2020 14:35:00 8.2 C 74 % 3.85 C
1329 21-02-2020 14:40:00 8.2 C 74 % 3.85 C
1330 21-02-2020 14:45:00 8.2 C 75 % 4.04 C
1331 21-02-2020 14:50:00 8.3 C 74 % 3.95 C
1332 21-02-2020 14:55:00 8.3 C 74 % 3.95 C
1333 21-02-2020 15:00:00 8.4 C 73 % 3.85 C
1334 21-02-2020 15:05:00 8.4 C 73 % 3.85 C
1335 21-02-2020 15:10:00 8.4 C 72 % 3.65 C
1336 21-02-2020 15:15:00 8.4 C 73 % 3.85 C
1337 21-02-2020 15:20:00 8.4 C 73 % 3.85 C
1338 21-02-2020 15:25:00 8.4 C 73 % 3.85 C
1339 21-02-2020 15:30:00 8.4 C 74 % 4.04 C
1340 21-02-2020 15:35:00 8.4 C 73 % 3.85 C
1341 21-02-2020 15:40:00 8.3 C 72 % 3.56 C
1342 21-02-2020 15:45:00 8.3 C 73 % 3.75 C
1343 21-02-2020 15:50:00 8.3 C 73 % 3.75 C
1344 21-02-2020 15:55:00 8.3 C 73 % 3.75 C
1345 21-02-2020 16:00:00 8.3 C 72 % 3.56 C
1346 21-02-2020 16:05:00 8.3 C 72 % 3.56 C
1347 21-02-2020 16:10:00 8.3 C 73 % 3.75 C
1348 21-02-2020 16:15:00 8.2 C 73 % 3.66 C
1349 21-02-2020 16:20:00 8.2 C 73 % 3.66 C
1350 21-02-2020 16:25:00 8.2 C 73 % 3.66 C
Sensor: Nr:Datum:Temp:Feuchte:Taupunkt:
Aussen-T/F 1351 21-02-2020 16:30:00 8.2 C 72 % 3.46 C
1352 21-02-2020 16:35:00 8.2 C 72 % 3.46 C
1353 21-02-2020 16:40:00 8.2 C 72 % 3.46 C
1354 21-02-2020 16:45:00 8.2 C 72 % 3.46 C
1355 21-02-2020 16:50:00 8.2 C 71 % 3.26 C
1356 21-02-2020 16:55:00 8.2 C 71 % 3.26 C
1357 21-02-2020 17:00:00 8.2 C 71 % 3.26 C
1358 21-02-2020 17:05:00 8.1 C 72 % 3.37 C
1359 21-02-2020 17:10:00 8.1 C 71 % 3.17 C
1360 21-02-2020 17:15:00 8 C 71 % 3.07 C
1361 21-02-2020 17:20:00 7.9 C 72 % 3.17 C
1362 21-02-2020 17:25:00 7.9 C 73 % 3.37 C
1363 21-02-2020 17:30:00 7.8 C 74 % 3.46 C
1364 21-02-2020 17:35:00 7.7 C 72 % 2.98 C
1365 21-02-2020 17:40:00 7.5 C 73 % 2.98 C
1366 21-02-2020 17:45:00 7.3 C 74 % 2.98 C
1367 21-02-2020 17:50:00 7.2 C 74 % 2.89 C
1368 21-02-2020 17:55:00 7.1 C 73 % 2.6 C
1369 21-02-2020 18:00:00 7 C 74 % 2.69 C
1370 21-02-2020 18:05:00 6.9 C 76 % 2.97 C
1371 21-02-2020 18:10:00 6.8 C 76 % 2.87 C
1372 21-02-2020 18:15:00 6.7 C 77 % 2.96 C
1373 21-02-2020 18:20:00 6.6 C 78 % 3.05 C
1374 21-02-2020 18:25:00 6.3 C 78 % 2.75 C
1375 21-02-2020 18:30:00 6.1 C 79 % 2.74 C
Sensor: Nr:Datum:Temp:Feuchte:Taupunkt:
Aussen-T/F 1376 21-02-2020 18:35:00 5.8 C 80 % 2.62 C
1377 21-02-2020 18:40:00 5.7 C 80 % 2.53 C
1378 21-02-2020 18:45:00 5.5 C 81 % 2.51 C
1379 21-02-2020 18:50:00 5.3 C 81 % 2.31 C
1380 21-02-2020 18:55:00 5.3 C 81 % 2.31 C
1381 21-02-2020 19:00:00 5.2 C 82 % 2.39 C
1382 21-02-2020 19:05:00 5.2 C 82 % 2.39 C
1383 21-02-2020 19:10:00 5.2 C 82 % 2.39 C
1384 21-02-2020 19:15:00 5.1 C 82 % 2.29 C
1385 21-02-2020 19:20:00 5.1 C 83 % 2.46 C
1386 21-02-2020 19:25:00 5 C 83 % 2.36 C
1387 21-02-2020 19:30:00 4.9 C 83 % 2.26 C
1388 21-02-2020 19:35:00 4.8 C 83 % 2.16 C
1389 21-02-2020 19:40:00 4.8 C 83 % 2.16 C
1390 21-02-2020 19:45:00 4.7 C 83 % 2.07 C
1391 21-02-2020 19:50:00 4.8 C 83 % 2.16 C
1392 21-02-2020 19:55:00 5 C 83 % 2.36 C
1393 21-02-2020 20:00:00 5.1 C 82 % 2.29 C
1394 21-02-2020 20:05:00 5 C 82 % 2.19 C
1395 21-02-2020 20:10:00 5 C 82 % 2.19 C
1396 21-02-2020 20:15:00 5.1 C 82 % 2.29 C
1397 21-02-2020 20:20:00 5.1 C 81 % 2.12 C
1398 21-02-2020 20:25:00 5.2 C 81 % 2.21 C
1399 21-02-2020 20:30:00 5.2 C 81 % 2.21 C
1400 21-02-2020 20:35:00 5.4 C 81 % 2.41 C
Sensor: Nr:Datum:Temp:Feuchte:Taupunkt:
Aussen-T/F 1401 21-02-2020 20:40:00 5.6 C 80 % 2.43 C
1402 21-02-2020 20:45:00 5.7 C 80 % 2.53 C
1403 21-02-2020 20:50:00 5.9 C 79 % 2.54 C
1404 21-02-2020 20:55:00 5.9 C 79 % 2.54 C
1405 21-02-2020 21:00:00 5.9 C 79 % 2.54 C
1406 21-02-2020 21:05:00 6 C 79 % 2.64 C
1407 21-02-2020 21:10:00 5.9 C 78 % 2.37 C
1408 21-02-2020 21:15:00 5.9 C 79 % 2.54 C
1409 21-02-2020 21:20:00 5.9 C 79 % 2.54 C
1410 21-02-2020 21:25:00 5.9 C 79 % 2.54 C
1411 21-02-2020 21:30:00 5.9 C 79 % 2.54 C
1412 21-02-2020 21:35:00 5.8 C 80 % 2.62 C
1413 21-02-2020 21:40:00 5.6 C 81 % 2.6 C
1414 21-02-2020 21:45:00 5.4 C 81 % 2.41 C
1415 21-02-2020 21:50:00 5.3 C 82 % 2.48 C
1416 21-02-2020 21:55:00 5.3 C 82 % 2.48 C
1417 21-02-2020 22:00:00 5.3 C 82 % 2.48 C
1418 21-02-2020 22:05:00 5.2 C 82 % 2.39 C
1419 21-02-2020 22:10:00 5.1 C 83 % 2.46 C
1420 21-02-2020 22:15:00 4.9 C 83 % 2.26 C
1421 21-02-2020 22:20:00 4.7 C 84 % 2.23 C
1422 21-02-2020 22:25:00 4.5 C 85 % 2.2 C
1423 21-02-2020 22:30:00 4.4 C 85 % 2.11 C
1424 21-02-2020 22:35:00 4.4 C 86 % 2.27 C
1425 21-02-2020 22:40:00 4.4 C 86 % 2.27 C
Sensor: Nr:Datum:Temp:Feuchte:Taupunkt:
Aussen-T/F 1426 21-02-2020 22:45:00 4.4 C 86 % 2.27 C
1427 21-02-2020 22:50:00 4.5 C 86 % 2.37 C
1428 21-02-2020 22:55:00 4.4 C 86 % 2.27 C
1429 21-02-2020 23:00:00 4.4 C 87 % 2.43 C
1430 21-02-2020 23:05:00 4.3 C 86 % 2.17 C
1431 21-02-2020 23:10:00 4.3 C 87 % 2.33 C
1432 21-02-2020 23:15:00 4.3 C 87 % 2.33 C
1433 21-02-2020 23:20:00 4.3 C 87 % 2.33 C
1434 21-02-2020 23:25:00 4.3 C 87 % 2.33 C
1435 21-02-2020 23:30:00 4.3 C 87 % 2.33 C
1436 21-02-2020 23:35:00 4.3 C 88 % 2.49 C
1437 21-02-2020 23:40:00 4.5 C 88 % 2.69 C
1438 21-02-2020 23:45:00 4.7 C 87 % 2.73 C
1439 21-02-2020 23:50:00 4.7 C 87 % 2.73 C
1440 21-02-2020 23:55:00 4.8 C 86 % 2.66 C
1441 22-02-2020 00:00:00 4.8 C 86 % 2.66 C
1442 22-02-2020 00:05:00 4.8 C 86 % 2.66 C
1443 22-02-2020 00:10:00 4.7 C 86 % 2.56 C
1444 22-02-2020 00:15:00 4.6 C 86 % 2.47 C
1445 22-02-2020 00:20:00 4.5 C 87 % 2.53 C
1446 22-02-2020 00:25:00 4.4 C 87 % 2.43 C
1447 22-02-2020 00:30:00 4.4 C 87 % 2.43 C
1448 22-02-2020 00:35:00 4.4 C 87 % 2.43 C
1449 22-02-2020 00:40:00 4.4 C 87 % 2.43 C
1450 22-02-2020 00:45:00 4.4 C 87 % 2.43 C
Sensor: Nr:Datum:Temp:Feuchte:Taupunkt:
Aussen-T/F 1451 22-02-2020 00:50:00 4.5 C 87 % 2.53 C
1452 22-02-2020 00:55:00 4.6 C 87 % 2.63 C
1453 22-02-2020 01:00:00 4.6 C 87 % 2.63 C
1454 22-02-2020 01:05:00 4.5 C 87 % 2.53 C
1455 22-02-2020 01:10:00 4.6 C 87 % 2.63 C
1456 22-02-2020 01:15:00 4.7 C 86 % 2.56 C
1457 22-02-2020 01:20:00 4.7 C 86 % 2.56 C
1458 22-02-2020 01:25:00 4.7 C 86 % 2.56 C
1459 22-02-2020 01:30:00 4.7 C 85 % 2.4 C
1460 22-02-2020 01:35:00 4.7 C 86 % 2.56 C
1461 22-02-2020 01:40:00 4.6 C 86 % 2.47 C
1462 22-02-2020 01:45:00 4.4 C 85 % 2.11 C
1463 22-02-2020 01:50:00 4.3 C 86 % 2.17 C
1464 22-02-2020 01:55:00 4.2 C 87 % 2.23 C
1465 22-02-2020 02:00:00 4.3 C 87 % 2.33 C
1466 22-02-2020 02:05:00 4.4 C 87 % 2.43 C
1467 22-02-2020 02:10:00 4.6 C 87 % 2.63 C
1468 22-02-2020 02:15:00 4.8 C 86 % 2.66 C
1469 22-02-2020 02:20:00 5.1 C 85 % 2.79 C
1470 22-02-2020 02:25:00 5.1 C 85 % 2.79 C
1471 22-02-2020 02:30:00 5.1 C 84 % 2.63 C
1472 22-02-2020 02:35:00 5.2 C 84 % 2.72 C
1473 22-02-2020 02:40:00 5.3 C 84 % 2.82 C
1474 22-02-2020 02:45:00 5.4 C 84 % 2.92 C
1475 22-02-2020 02:50:00 5.5 C 83 % 2.85 C
Sensor: Nr:Datum:Temp:Feuchte:Taupunkt:
Aussen-T/F 1476 22-02-2020 02:55:00 5.5 C 83 % 2.85 C
1477 22-02-2020 03:00:00 5.5 C 83 % 2.85 C
1478 22-02-2020 03:05:00 5.4 C 83 % 2.75 C
1479 22-02-2020 03:10:00 5.4 C 83 % 2.75 C
1480 22-02-2020 03:15:00 5.3 C 83 % 2.65 C
1481 22-02-2020 03:20:00 5.4 C 83 % 2.75 C
1482 22-02-2020 03:25:00 5.4 C 83 % 2.75 C
1483 22-02-2020 03:30:00 5.4 C 83 % 2.75 C
1484 22-02-2020 03:35:00 5.4 C 83 % 2.75 C
1485 22-02-2020 03:40:00 5.5 C 83 % 2.85 C
1486 22-02-2020 03:45:00 5.5 C 82 % 2.68 C
1487 22-02-2020 03:50:00 5.4 C 83 % 2.75 C
1488 22-02-2020 03:55:00 5.4 C 83 % 2.75 C
1489 22-02-2020 04:00:00 5.3 C 83 % 2.65 C
1490 22-02-2020 04:05:00 5.3 C 83 % 2.65 C
1491 22-02-2020 04:10:00 5.3 C 83 % 2.65 C
1492 22-02-2020 04:15:00 5.3 C 83 % 2.65 C
1493 22-02-2020 04:20:00 5.3 C 83 % 2.65 C
1494 22-02-2020 04:25:00 5.3 C 83 % 2.65 C
1495 22-02-2020 04:30:00 5.3 C 83 % 2.65 C
1496 22-02-2020 04:35:00 5.3 C 83 % 2.65 C
1497 22-02-2020 04:40:00 5.2 C 83 % 2.56 C
1498 22-02-2020 04:45:00 5.2 C 84 % 2.72 C
1499 22-02-2020 04:50:00 5.3 C 84 % 2.82 C
1500 22-02-2020 04:55:00 5.3 C 83 % 2.65 C
Sensor: Nr:Datum:Temp:Feuchte:Taupunkt:
Aussen-T/F 1501 22-02-2020 05:00:00 5.4 C 83 % 2.75 C
1502 22-02-2020 05:05:00 5.6 C 83 % 2.95 C
1503 22-02-2020 05:10:00 5.6 C 83 % 2.95 C
1504 22-02-2020 05:15:00 5.6 C 83 % 2.95 C
1505 22-02-2020 05:20:00 5.7 C 83 % 3.04 C
1506 22-02-2020 05:25:00 5.8 C 82 % 2.97 C
1507 22-02-2020 05:30:00 5.7 C 82 % 2.87 C
1508 22-02-2020 05:35:00 5.8 C 82 % 2.97 C
1509 22-02-2020 05:40:00 5.8 C 82 % 2.97 C
1510 22-02-2020 05:45:00 5.8 C 82 % 2.97 C
1511 22-02-2020 05:50:00 5.9 C 82 % 3.07 C
1512 22-02-2020 05:55:00 5.8 C 82 % 2.97 C
1513 22-02-2020 06:00:00 5.8 C 82 % 2.97 C
1514 22-02-2020 06:05:00 5.8 C 82 % 2.97 C
1515 22-02-2020 06:10:00 5.8 C 81 % 2.8 C
1516 22-02-2020 06:15:00 5.8 C 82 % 2.97 C
1517 22-02-2020 06:20:00 5.8 C 82 % 2.97 C
1518 22-02-2020 06:25:00 5.8 C 82 % 2.97 C
1519 22-02-2020 06:30:00 5.8 C 82 % 2.97 C
1520 22-02-2020 06:35:00 5.8 C 82 % 2.97 C
1521 22-02-2020 06:40:00 5.9 C 82 % 3.07 C
1522 22-02-2020 06:45:00 5.9 C 82 % 3.07 C
1523 22-02-2020 06:50:00 5.9 C 82 % 3.07 C
1524 22-02-2020 06:55:00 5.8 C 82 % 2.97 C
1525 22-02-2020 07:00:00 5.8 C 82 % 2.97 C
Sensor: Nr:Datum:Temp:Feuchte:Taupunkt:
Aussen-T/F 1526 22-02-2020 07:05:00 5.8 C 82 % 2.97 C
1527 22-02-2020 07:10:00 5.9 C 82 % 3.07 C
1528 22-02-2020 07:15:00 5.8 C 81 % 2.8 C
1529 22-02-2020 07:20:00 5.8 C 82 % 2.97 C
1530 22-02-2020 07:25:00 5.7 C 82 % 2.87 C
1531 22-02-2020 07:30:00 5.7 C 82 % 2.87 C
1532 22-02-2020 07:35:00 5.7 C 82 % 2.87 C
1533 22-02-2020 07:40:00 5.7 C 82 % 2.87 C
1534 22-02-2020 07:45:00 5.8 C 82 % 2.97 C
1535 22-02-2020 07:50:00 5.9 C 82 % 3.07 C
1536 22-02-2020 07:55:00 5.8 C 82 % 2.97 C
1537 22-02-2020 08:00:00 5.8 C 82 % 2.97 C
1538 22-02-2020 08:05:00 5.9 C 82 % 3.07 C
1539 22-02-2020 08:10:00 5.9 C 82 % 3.07 C
1540 22-02-2020 08:15:00 5.9 C 81 % 2.9 C
1541 22-02-2020 08:20:00 6.1 C 81 % 3.09 C
1542 22-02-2020 08:25:00 6.1 C 81 % 3.09 C
1543 22-02-2020 08:30:00 6.1 C 81 % 3.09 C
1544 22-02-2020 08:35:00 6.1 C 81 % 3.09 C
1545 22-02-2020 08:40:00 6.1 C 81 % 3.09 C
1546 22-02-2020 08:45:00 6.1 C 81 % 3.09 C
1547 22-02-2020 08:50:00 6.2 C 81 % 3.19 C
1548 22-02-2020 08:55:00 6.2 C 81 % 3.19 C
1549 22-02-2020 09:00:00 6.3 C 81 % 3.29 C
1550 22-02-2020 09:05:00 6.4 C 80 % 3.21 C
Sensor: Nr:Datum:Temp:Feuchte:Taupunkt:
Aussen-T/F 1551 22-02-2020 09:10:00 6.5 C 80 % 3.31 C
1552 22-02-2020 09:15:00 6.6 C 80 % 3.4 C
1553 22-02-2020 09:20:00 6.7 C 80 % 3.5 C
1554 22-02-2020 09:25:00 6.7 C 79 % 3.32 C
1555 22-02-2020 09:30:00 6.8 C 79 % 3.42 C
1556 22-02-2020 09:35:00 6.8 C 78 % 3.24 C
1557 22-02-2020 09:40:00 6.8 C 78 % 3.24 C
1558 22-02-2020 09:45:00 6.9 C 78 % 3.34 C
1559 22-02-2020 09:50:00 6.9 C 78 % 3.34 C
1560 22-02-2020 09:55:00 6.9 C 77 % 3.16 C
1561 22-02-2020 10:00:00 7.1 C 77 % 3.35 C
1562 22-02-2020 10:05:00 7.2 C 77 % 3.45 C
1563 22-02-2020 10:10:00 7.3 C 76 % 3.36 C
1564 22-02-2020 10:15:00 7.3 C 76 % 3.36 C
1565 22-02-2020 10:20:00 7.4 C 75 % 3.27 C
1566 22-02-2020 10:25:00 7.4 C 75 % 3.27 C
1567 22-02-2020 10:30:00 7.5 C 75 % 3.36 C
1568 22-02-2020 10:35:00 7.6 C 75 % 3.46 C
1569 22-02-2020 10:40:00 7.6 C 75 % 3.46 C
1570 22-02-2020 10:45:00 7.6 C 75 % 3.46 C
1571 22-02-2020 10:50:00 7.6 C 75 % 3.46 C
1572 22-02-2020 10:55:00 7.6 C 75 % 3.46 C
1573 22-02-2020 11:00:00 7.7 C 75 % 3.56 C
1574 22-02-2020 11:05:00 7.7 C 75 % 3.56 C
1575 22-02-2020 11:10:00 7.7 C 76 % 3.75 C
Sensor: Nr:Datum:Temp:Feuchte:Taupunkt:
Aussen-T/F 1576 22-02-2020 11:15:00 7.8 C 75 % 3.65 C
1577 22-02-2020 11:20:00 7.8 C 75 % 3.65 C
1578 22-02-2020 11:25:00 7.8 C 74 % 3.46 C
1579 22-02-2020 11:30:00 7.9 C 74 % 3.56 C
1580 22-02-2020 11:35:00 7.9 C 73 % 3.37 C
1581 22-02-2020 11:40:00 8 C 73 % 3.46 C
1582 22-02-2020 11:45:00 8.1 C 73 % 3.56 C
1583 22-02-2020 11:50:00 8.2 C 72 % 3.46 C
1584 22-02-2020 11:55:00 8.2 C 71 % 3.26 C
1585 22-02-2020 12:00:00 8.3 C 70 % 3.16 C
1586 22-02-2020 12:05:00 8.4 C 70 % 3.26 C
1587 22-02-2020 12:10:00 8.6 C 71 % 3.65 C
1588 22-02-2020 12:15:00 8.7 C 70 % 3.54 C
1589 22-02-2020 12:20:00 8.7 C 70 % 3.54 C
1590 22-02-2020 12:25:00 8.8 C 69 % 3.44 C
1591 22-02-2020 12:30:00 8.8 C 70 % 3.64 C
1592 22-02-2020 12:35:00 8.9 C 68 % 3.32 C
1593 22-02-2020 12:40:00 9 C 69 % 3.63 C
1594 22-02-2020 12:45:00 9.1 C 68 % 3.52 C
1595 22-02-2020 12:50:00 9.2 C 69 % 3.82 C
1596 22-02-2020 12:55:00 9.2 C 69 % 3.82 C
1597 22-02-2020 13:00:00 9.3 C 67 % 3.5 C
1598 22-02-2020 13:05:00 9.4 C 68 % 3.8 C
1599 22-02-2020 13:10:00 9.5 C 69 % 4.11 C
1600 22-02-2020 13:15:00 9.6 C 69 % 4.2 C
Sensor: Nr:Datum:Temp:Feuchte:Taupunkt:
Aussen-T/F 1601 22-02-2020 13:20:00 9.7 C 67 % 3.88 C
1602 22-02-2020 13:25:00 9.8 C 67 % 3.97 C
1603 22-02-2020 13:30:00 10 C 66 % 3.95 C
1604 22-02-2020 13:35:00 10.2 C 65 % 3.92 C
1605 22-02-2020 13:40:00 10.3 C 66 % 4.24 C
1606 22-02-2020 13:45:00 10.3 C 66 % 4.24 C
1607 22-02-2020 13:50:00 10.3 C 65 % 4.02 C
1608 22-02-2020 13:55:00 10.3 C 65 % 4.02 C
1609 22-02-2020 14:00:00 10.3 C 65 % 4.02 C
1610 22-02-2020 14:05:00 10.3 C 65 % 4.02 C
1611 22-02-2020 14:10:00 10.3 C 65 % 4.02 C
1612 22-02-2020 14:15:00 10.3 C 65 % 4.02 C
1613 22-02-2020 14:20:00 10.3 C 65 % 4.02 C
1614 22-02-2020 14:25:00 10.3 C 66 % 4.24 C
1615 22-02-2020 14:30:00 10.2 C 66 % 4.14 C
1616 22-02-2020 14:35:00 10.3 C 66 % 4.24 C
1617 22-02-2020 14:40:00 10.3 C 66 % 4.24 C
1618 22-02-2020 14:45:00 10.3 C 66 % 4.24 C
1619 22-02-2020 14:50:00 10.3 C 67 % 4.45 C
1620 22-02-2020 14:55:00 10.3 C 67 % 4.45 C
1621 22-02-2020 15:00:00 10.4 C 67 % 4.55 C
1622 22-02-2020 15:05:00 10.4 C 67 % 4.55 C
1623 22-02-2020 15:10:00 10.4 C 67 % 4.55 C
1624 22-02-2020 15:15:00 10.4 C 67 % 4.55 C
1625 22-02-2020 15:20:00 10.5 C 67 % 4.64 C
Sensor: Nr:Datum:Temp:Feuchte:Taupunkt:
Aussen-T/F 1626 22-02-2020 15:25:00 10.6 C 67 % 4.74 C
1627 22-02-2020 15:30:00 10.6 C 68 % 4.95 C
1628 22-02-2020 15:35:00 10.7 C 68 % 5.04 C
1629 22-02-2020 15:40:00 10.7 C 68 % 5.04 C
1630 22-02-2020 15:45:00 10.8 C 68 % 5.14 C
1631 22-02-2020 15:50:00 10.8 C 68 % 5.14 C
1632 22-02-2020 15:55:00 10.8 C 68 % 5.14 C
1633 22-02-2020 16:00:00 10.9 C 68 % 5.23 C
1634 22-02-2020 16:05:00 10.9 C 68 % 5.23 C
1635 22-02-2020 16:10:00 10.8 C 69 % 5.35 C
1636 22-02-2020 16:15:00 10.8 C 69 % 5.35 C
1637 22-02-2020 16:20:00 10.8 C 69 % 5.35 C
1638 22-02-2020 16:25:00 10.7 C 69 % 5.25 C
1639 22-02-2020 16:30:00 10.7 C 70 % 5.46 C
1640 22-02-2020 16:35:00 10.7 C 70 % 5.46 C
1641 22-02-2020 16:40:00 10.6 C 71 % 5.57 C
1642 22-02-2020 16:45:00 10.6 C 71 % 5.57 C
1643 22-02-2020 16:50:00 10.6 C 71 % 5.57 C
1644 22-02-2020 16:55:00 10.5 C 71 % 5.47 C
1645 22-02-2020 17:00:00 10.4 C 72 % 5.58 C
1646 22-02-2020 17:05:00 10.4 C 71 % 5.38 C
1647 22-02-2020 17:10:00 10.4 C 72 % 5.58 C
1648 22-02-2020 17:15:00 10.3 C 72 % 5.48 C
1649 22-02-2020 17:20:00 10.3 C 72 % 5.48 C
1650 22-02-2020 17:25:00 10.3 C 72 % 5.48 C
Sensor: Nr:Datum:Temp:Feuchte:Taupunkt:
Aussen-T/F 1651 22-02-2020 17:30:00 10.3 C 72 % 5.48 C
1652 22-02-2020 17:35:00 10.3 C 73 % 5.68 C
1653 22-02-2020 17:40:00 10.3 C 73 % 5.68 C
1654 22-02-2020 17:45:00 10.3 C 73 % 5.68 C
1655 22-02-2020 17:50:00 10.3 C 73 % 5.68 C
1656 22-02-2020 17:55:00 10.2 C 73 % 5.58 C
1657 22-02-2020 18:00:00 10.2 C 74 % 5.78 C
1658 22-02-2020 18:05:00 10.2 C 74 % 5.78 C
1659 22-02-2020 18:10:00 10.2 C 74 % 5.78 C
1660 22-02-2020 18:15:00 10.2 C 74 % 5.78 C
1661 22-02-2020 18:20:00 10.1 C 75 % 5.88 C
1662 22-02-2020 18:25:00 10.1 C 75 % 5.88 C
1663 22-02-2020 18:30:00 10.1 C 76 % 6.07 C
1664 22-02-2020 18:35:00 10.1 C 76 % 6.07 C
1665 22-02-2020 18:40:00 10.1 C 77 % 6.26 C
1666 22-02-2020 18:45:00 10.1 C 77 % 6.26 C
1667 22-02-2020 18:50:00 10 C 78 % 6.35 C
1668 22-02-2020 18:55:00 10 C 79 % 6.53 C
1669 22-02-2020 19:00:00 9.9 C 79 % 6.43 C
1670 22-02-2020 19:05:00 9.9 C 79 % 6.43 C
1671 22-02-2020 19:10:00 9.9 C 80 % 6.62 C
1672 22-02-2020 19:15:00 9.9 C 80 % 6.62 C
1673 22-02-2020 19:20:00 9.9 C 80 % 6.62 C
1674 22-02-2020 19:25:00 9.9 C 80 % 6.62 C
1675 22-02-2020 19:30:00 9.9 C 80 % 6.62 C
Sensor: Nr:Datum:Temp:Feuchte:Taupunkt:
Aussen-T/F 1676 22-02-2020 19:35:00 9.9 C 80 % 6.62 C
1677 22-02-2020 19:40:00 9.9 C 80 % 6.62 C
1678 22-02-2020 19:45:00 10 C 81 % 6.89 C
1679 22-02-2020 19:50:00 10.1 C 80 % 6.81 C
1680 22-02-2020 19:55:00 10.1 C 81 % 6.99 C
1681 22-02-2020 20:00:00 10.2 C 81 % 7.09 C
1682 22-02-2020 20:05:00 10.2 C 81 % 7.09 C
1683 22-02-2020 20:10:00 10.2 C 81 % 7.09 C
1684 22-02-2020 20:15:00 10.2 C 81 % 7.09 C
1685 22-02-2020 20:20:00 10.2 C 81 % 7.09 C
1686 22-02-2020 20:25:00 10.2 C 81 % 7.09 C
1687 22-02-2020 20:30:00 10.2 C 81 % 7.09 C
1688 22-02-2020 20:35:00 10.3 C 82 % 7.37 C
1689 22-02-2020 20:40:00 10.3 C 82 % 7.37 C
1690 22-02-2020 20:45:00 10.3 C 82 % 7.37 C
1691 22-02-2020 20:50:00 10.3 C 82 % 7.37 C
1692 22-02-2020 20:55:00 10.2 C 82 % 7.27 C
1693 22-02-2020 21:00:00 10.2 C 82 % 7.27 C
1694 22-02-2020 21:05:00 10.2 C 83 % 7.45 C
1695 22-02-2020 21:10:00 10.2 C 83 % 7.45 C
1696 22-02-2020 21:15:00 10.3 C 83 % 7.54 C
1697 22-02-2020 21:20:00 10.3 C 83 % 7.54 C
1698 22-02-2020 21:25:00 10.4 C 82 % 7.46 C
1699 22-02-2020 21:30:00 10.4 C 82 % 7.46 C
1700 22-02-2020 21:35:00 10.4 C 82 % 7.46 C
Sensor: Nr:Datum:Temp:Feuchte:Taupunkt:
Aussen-T/F 1701 22-02-2020 21:40:00 10.5 C 82 % 7.56 C
1702 22-02-2020 21:45:00 10.6 C 82 % 7.66 C
1703 22-02-2020 21:50:00 10.6 C 82 % 7.66 C
1704 22-02-2020 21:55:00 10.6 C 82 % 7.66 C
1705 22-02-2020 22:00:00 10.6 C 82 % 7.66 C
1706 22-02-2020 22:05:00 10.6 C 82 % 7.66 C
1707 22-02-2020 22:10:00 10.7 C 82 % 7.76 C
1708 22-02-2020 22:15:00 10.7 C 82 % 7.76 C
1709 22-02-2020 22:20:00 10.8 C 82 % 7.85 C
1710 22-02-2020 22:25:00 10.8 C 82 % 7.85 C
1711 22-02-2020 22:30:00 10.9 C 81 % 7.77 C
1712 22-02-2020 22:35:00 10.9 C 82 % 7.95 C
1713 22-02-2020 22:40:00 10.9 C 82 % 7.95 C
1714 22-02-2020 22:45:00 10.9 C 82 % 7.95 C
1715 22-02-2020 22:50:00 10.9 C 82 % 7.95 C
1716 22-02-2020 22:55:00 10.9 C 82 % 7.95 C
1717 22-02-2020 23:00:00 10.8 C 82 % 7.85 C
1718 22-02-2020 23:05:00 10.8 C 82 % 7.85 C
1719 22-02-2020 23:10:00 10.9 C 82 % 7.95 C
1720 22-02-2020 23:15:00 10.9 C 82 % 7.95 C
1721 22-02-2020 23:20:00 10.9 C 82 % 7.95 C
1722 22-02-2020 23:25:00 10.9 C 82 % 7.95 C
1723 22-02-2020 23:30:00 10.9 C 82 % 7.95 C
1724 22-02-2020 23:35:00 10.9 C 82 % 7.95 C
1725 22-02-2020 23:40:00 10.9 C 82 % 7.95 C
Sensor: Nr:Datum:Temp:Feuchte:Taupunkt:
Aussen-T/F 1726 22-02-2020 23:45:00 10.9 C 82 % 7.95 C
1727 22-02-2020 23:50:00 11 C 82 % 8.05 C
1728 22-02-2020 23:55:00 11 C 82 % 8.05 C
1729 23-02-2020 00:00:00 10.9 C 82 % 7.95 C
1730 23-02-2020 00:05:00 11 C 81 % 7.87 C
1731 23-02-2020 00:10:00 11 C 81 % 7.87 C
1732 23-02-2020 00:15:00 11 C 81 % 7.87 C
1733 23-02-2020 00:20:00 11 C 80 % 7.69 C
1734 23-02-2020 00:25:00 11 C 81 % 7.87 C
1735 23-02-2020 00:30:00 10.9 C 81 % 7.77 C
1736 23-02-2020 00:35:00 10.8 C 82 % 7.85 C
1737 23-02-2020 00:40:00 10.7 C 83 % 7.93 C
1738 23-02-2020 00:45:00 10.6 C 84 % 8.01 C
1739 23-02-2020 00:50:00 10.4 C 85 % 7.99 C
1740 23-02-2020 00:55:00 10.3 C 87 % 8.23 C
1741 23-02-2020 01:00:00 10.1 C 88 % 8.21 C
1742 23-02-2020 01:05:00 10 C 89 % 8.27 C
1743 23-02-2020 01:10:00 9.9 C 89 % 8.17 C
1744 23-02-2020 01:15:00 9.9 C 89 % 8.17 C
1745 23-02-2020 01:20:00 9.9 C 89 % 8.17 C
1746 23-02-2020 01:25:00 9.8 C 90 % 8.24 C
1747 23-02-2020 01:30:00 9.8 C 90 % 8.24 C
1748 23-02-2020 01:35:00 9.8 C 90 % 8.24 C
1749 23-02-2020 01:40:00 9.9 C 90 % 8.34 C
1750 23-02-2020 01:45:00 9.9 C 89 % 8.17 C
Sensor: Nr:Datum:Temp:Feuchte:Taupunkt:
Aussen-T/F 1751 23-02-2020 01:50:00 9.9 C 89 % 8.17 C
1752 23-02-2020 01:55:00 10 C 89 % 8.27 C
1753 23-02-2020 02:00:00 10 C 89 % 8.27 C
1754 23-02-2020 02:05:00 10.1 C 89 % 8.37 C
1755 23-02-2020 02:10:00 10.1 C 89 % 8.37 C
1756 23-02-2020 02:15:00 10.1 C 89 % 8.37 C
1757 23-02-2020 02:20:00 10 C 89 % 8.27 C
1758 23-02-2020 02:25:00 10 C 88 % 8.11 C
1759 23-02-2020 02:30:00 10 C 88 % 8.11 C
1760 23-02-2020 02:35:00 10.1 C 88 % 8.21 C
1761 23-02-2020 02:40:00 10.1 C 87 % 8.04 C
1762 23-02-2020 02:45:00 10.2 C 86 % 7.97 C
1763 23-02-2020 02:50:00 10.2 C 86 % 7.97 C
1764 23-02-2020 02:55:00 10.3 C 85 % 7.89 C
1765 23-02-2020 03:00:00 10.3 C 85 % 7.89 C
1766 23-02-2020 03:05:00 10.3 C 85 % 7.89 C
1767 23-02-2020 03:10:00 10.3 C 84 % 7.72 C
1768 23-02-2020 03:15:00 10.3 C 84 % 7.72 C
1769 23-02-2020 03:20:00 10.2 C 85 % 7.79 C
1770 23-02-2020 03:25:00 10.2 C 85 % 7.79 C
1771 23-02-2020 03:30:00 10.2 C 85 % 7.79 C
1772 23-02-2020 03:35:00 10.2 C 85 % 7.79 C
1773 23-02-2020 03:40:00 10.1 C 85 % 7.7 C
1774 23-02-2020 03:45:00 10.1 C 86 % 7.87 C
1775 23-02-2020 03:50:00 10.1 C 86 % 7.87 C
Sensor: Nr:Datum:Temp:Feuchte:Taupunkt:
Aussen-T/F 1776 23-02-2020 03:55:00 10.1 C 85 % 7.7 C
1777 23-02-2020 04:00:00 10.1 C 85 % 7.7 C
1778 23-02-2020 04:05:00 10.1 C 84 % 7.52 C
1779 23-02-2020 04:10:00 10.2 C 84 % 7.62 C
1780 23-02-2020 04:15:00 10.2 C 83 % 7.45 C
1781 23-02-2020 04:20:00 10.2 C 83 % 7.45 C
1782 23-02-2020 04:25:00 10.3 C 83 % 7.54 C
1783 23-02-2020 04:30:00 10.3 C 83 % 7.54 C
1784 23-02-2020 04:35:00 10.3 C 83 % 7.54 C
1785 23-02-2020 04:40:00 10.3 C 83 % 7.54 C
1786 23-02-2020 04:45:00 10.4 C 83 % 7.64 C
1787 23-02-2020 04:50:00 10.4 C 84 % 7.82 C
1788 23-02-2020 04:55:00 10.3 C 84 % 7.72 C
1789 23-02-2020 05:00:00 10.3 C 85 % 7.89 C
1790 23-02-2020 05:05:00 10.3 C 85 % 7.89 C
1791 23-02-2020 05:10:00 10.3 C 85 % 7.89 C
1792 23-02-2020 05:15:00 10.3 C 85 % 7.89 C
1793 23-02-2020 05:20:00 10.3 C 86 % 8.06 C
1794 23-02-2020 05:25:00 10.3 C 86 % 8.06 C
1795 23-02-2020 05:30:00 10.3 C 86 % 8.06 C
1796 23-02-2020 05:35:00 10.4 C 86 % 8.16 C
1797 23-02-2020 05:40:00 10.4 C 86 % 8.16 C
1798 23-02-2020 05:45:00 10.4 C 85 % 7.99 C
1799 23-02-2020 05:50:00 10.4 C 85 % 7.99 C
1800 23-02-2020 05:55:00 10.4 C 86 % 8.16 C
Sensor: Nr:Datum:Temp:Feuchte:Taupunkt:
Aussen-T/F 1801 23-02-2020 06:00:00 10.3 C 86 % 8.06 C
1802 23-02-2020 06:05:00 10.3 C 86 % 8.06 C
1803 23-02-2020 06:10:00 10.3 C 85 % 7.89 C
1804 23-02-2020 06:15:00 10.3 C 85 % 7.89 C
1805 23-02-2020 06:20:00 10.3 C 86 % 8.06 C
1806 23-02-2020 06:25:00 10.2 C 86 % 7.97 C
1807 23-02-2020 06:30:00 10.2 C 85 % 7.79 C
1808 23-02-2020 06:35:00 10.3 C 85 % 7.89 C
1809 23-02-2020 06:40:00 10.3 C 85 % 7.89 C
1810 23-02-2020 06:45:00 10.3 C 85 % 7.89 C
1811 23-02-2020 06:50:00 10.3 C 85 % 7.89 C
1812 23-02-2020 06:55:00 10.3 C 86 % 8.06 C
1813 23-02-2020 07:00:00 10.3 C 86 % 8.06 C
1814 23-02-2020 07:05:00 10.2 C 86 % 7.97 C
1815 23-02-2020 07:10:00 10.2 C 86 % 7.97 C
1816 23-02-2020 07:15:00 10.2 C 87 % 8.14 C
1817 23-02-2020 07:20:00 10.2 C 87 % 8.14 C
1818 23-02-2020 07:25:00 10.2 C 87 % 8.14 C
1819 23-02-2020 07:30:00 10.2 C 87 % 8.14 C
1820 23-02-2020 07:35:00 10.3 C 87 % 8.23 C
1821 23-02-2020 07:40:00 10.3 C 87 % 8.23 C
1822 23-02-2020 07:45:00 10.3 C 88 % 8.4 C
1823 23-02-2020 07:50:00 10.3 C 88 % 8.4 C
1824 23-02-2020 07:55:00 10.3 C 88 % 8.4 C
1825 23-02-2020 08:00:00 10.4 C 88 % 8.5 C
Sensor: Nr:Datum:Temp:Feuchte:Taupunkt:
Aussen-T/F 1826 23-02-2020 08:05:00 10.5 C 88 % 8.6 C
1827 23-02-2020 08:10:00 10.5 C 88 % 8.6 C
1828 23-02-2020 08:15:00 10.4 C 88 % 8.5 C
1829 23-02-2020 08:20:00 10.5 C 88 % 8.6 C
1830 23-02-2020 08:25:00 10.5 C 88 % 8.6 C
1831 23-02-2020 08:30:00 10.5 C 88 % 8.6 C
1832 23-02-2020 08:35:00 10.6 C 88 % 8.7 C
1833 23-02-2020 08:40:00 10.6 C 88 % 8.7 C
1834 23-02-2020 08:45:00 10.6 C 88 % 8.7 C
1835 23-02-2020 08:50:00 10.6 C 88 % 8.7 C
1836 23-02-2020 08:55:00 10.6 C 88 % 8.7 C
1837 23-02-2020 09:00:00 10.6 C 88 % 8.7 C
1838 23-02-2020 09:05:00 10.6 C 88 % 8.7 C
1839 23-02-2020 09:10:00 10.6 C 88 % 8.7 C
1840 23-02-2020 09:15:00 10.6 C 88 % 8.7 C
1841 23-02-2020 09:20:00 10.6 C 89 % 8.86 C
1842 23-02-2020 09:25:00 10.6 C 88 % 8.7 C
1843 23-02-2020 09:30:00 10.5 C 89 % 8.77 C
1844 23-02-2020 09:35:00 10.5 C 89 % 8.77 C
1845 23-02-2020 09:40:00 10.6 C 89 % 8.86 C
1846 23-02-2020 09:45:00 10.6 C 89 % 8.86 C
1847 23-02-2020 09:50:00 10.6 C 89 % 8.86 C
1848 23-02-2020 09:55:00 10.6 C 89 % 8.86 C
1849 23-02-2020 10:00:00 10.6 C 89 % 8.86 C
1850 23-02-2020 10:05:00 10.6 C 89 % 8.86 C
Sensor: Nr:Datum:Temp:Feuchte:Taupunkt:
Aussen-T/F 1851 23-02-2020 10:10:00 10.7 C 89 % 8.96 C
1852 23-02-2020 10:15:00 10.7 C 89 % 8.96 C
1853 23-02-2020 10:20:00 10.8 C 88 % 8.89 C
1854 23-02-2020 10:25:00 10.8 C 88 % 8.89 C
1855 23-02-2020 10:30:00 11 C 87 % 8.92 C
1856 23-02-2020 10:35:00 11.1 C 87 % 9.02 C
1857 23-02-2020 10:40:00 11.1 C 87 % 9.02 C
1858 23-02-2020 10:45:00 11.2 C 87 % 9.12 C
1859 23-02-2020 10:50:00 11.2 C 86 % 8.95 C
1860 23-02-2020 10:55:00 11.2 C 86 % 8.95 C
1861 23-02-2020 11:00:00 11.2 C 86 % 8.95 C
1862 23-02-2020 11:05:00 11.2 C 86 % 8.95 C
1863 23-02-2020 11:10:00 11.3 C 86 % 9.05 C
1864 23-02-2020 11:15:00 11.3 C 86 % 9.05 C
1865 23-02-2020 11:20:00 11.3 C 86 % 9.05 C
1866 23-02-2020 11:25:00 11.3 C 86 % 9.05 C
1867 23-02-2020 11:30:00 11.3 C 86 % 9.05 C
1868 23-02-2020 11:35:00 11.3 C 87 % 9.22 C
1869 23-02-2020 11:40:00 11.4 C 86 % 9.14 C
1870 23-02-2020 11:45:00 11.4 C 86 % 9.14 C
1871 23-02-2020 11:50:00 11.4 C 86 % 9.14 C
1872 23-02-2020 11:55:00 11.5 C 86 % 9.24 C
1873 23-02-2020 12:00:00 11.6 C 86 % 9.34 C
1874 23-02-2020 12:05:00 11.6 C 86 % 9.34 C
1875 23-02-2020 12:10:00 11.7 C 86 % 9.44 C
Sensor: Nr:Datum:Temp:Feuchte:Taupunkt:
Aussen-T/F 1876 23-02-2020 12:15:00 11.7 C 86 % 9.44 C
1877 23-02-2020 12:20:00 11.8 C 85 % 9.36 C
1878 23-02-2020 12:25:00 11.8 C 85 % 9.36 C
1879 23-02-2020 12:30:00 11.8 C 85 % 9.36 C
1880 23-02-2020 12:35:00 11.8 C 85 % 9.36 C
1881 23-02-2020 12:40:00 11.8 C 85 % 9.36 C
1882 23-02-2020 12:45:00 11.9 C 85 % 9.46 C
1883 23-02-2020 12:50:00 11.9 C 85 % 9.46 C
1884 23-02-2020 12:55:00 11.9 C 85 % 9.46 C
1885 23-02-2020 13:00:00 11.9 C 85 % 9.46 C
1886 23-02-2020 13:05:00 12 C 84 % 9.38 C
1887 23-02-2020 13:10:00 12.1 C 84 % 9.48 C
1888 23-02-2020 13:15:00 12 C 84 % 9.38 C
1889 23-02-2020 13:20:00 12.1 C 84 % 9.48 C
1890 23-02-2020 13:25:00 12 C 84 % 9.38 C
1891 23-02-2020 13:30:00 12 C 84 % 9.38 C
1892 23-02-2020 13:35:00 12 C 84 % 9.38 C
1893 23-02-2020 13:40:00 12.1 C 84 % 9.48 C
1894 23-02-2020 13:45:00 12.1 C 84 % 9.48 C
1895 23-02-2020 13:50:00 12.1 C 84 % 9.48 C
1896 23-02-2020 13:55:00 12 C 84 % 9.38 C
1897 23-02-2020 14:00:00 12 C 84 % 9.38 C
1898 23-02-2020 14:05:00 12.1 C 84 % 9.48 C
1899 23-02-2020 14:10:00 12.1 C 85 % 9.66 C
1900 23-02-2020 14:15:00 12 C 85 % 9.56 C
Sensor: Nr:Datum:Temp:Feuchte:Taupunkt:
Aussen-T/F 1901 23-02-2020 14:20:00 12.1 C 85 % 9.66 C
1902 23-02-2020 14:25:00 12 C 85 % 9.56 C
1903 23-02-2020 14:30:00 12 C 85 % 9.56 C
1904 23-02-2020 14:35:00 12 C 85 % 9.56 C
1905 23-02-2020 14:40:00 12.1 C 85 % 9.66 C
1906 23-02-2020 14:45:00 12.1 C 85 % 9.66 C
1907 23-02-2020 14:50:00 12.1 C 86 % 9.83 C
1908 23-02-2020 14:55:00 12.1 C 86 % 9.83 C
1909 23-02-2020 15:00:00 12.1 C 86 % 9.83 C
1910 23-02-2020 15:05:00 12.1 C 86 % 9.83 C
1911 23-02-2020 15:10:00 12.2 C 86 % 9.93 C
1912 23-02-2020 15:15:00 12.2 C 86 % 9.93 C
1913 23-02-2020 15:20:00 12.2 C 86 % 9.93 C
1914 23-02-2020 15:25:00 12.2 C 86 % 9.93 C
1915 23-02-2020 15:30:00 12.2 C 86 % 9.93 C
1916 23-02-2020 15:35:00 12.2 C 86 % 9.93 C
1917 23-02-2020 15:40:00 12.2 C 86 % 9.93 C
1918 23-02-2020 15:45:00 12.2 C 86 % 9.93 C
1919 23-02-2020 15:50:00 12.2 C 86 % 9.93 C
1920 23-02-2020 15:55:00 12.1 C 86 % 9.83 C
1921 23-02-2020 16:00:00 12.1 C 86 % 9.83 C
1922 23-02-2020 16:05:00 12.1 C 86 % 9.83 C
1923 23-02-2020 16:10:00 12.1 C 87 % 10 C
1924 23-02-2020 16:15:00 12.1 C 86 % 9.83 C
1925 23-02-2020 16:20:00 12.1 C 87 % 10 C
Sensor: Nr:Datum:Temp:Feuchte:Taupunkt:
Aussen-T/F 1926 23-02-2020 16:25:00 12.1 C 87 % 10 C
1927 23-02-2020 16:30:00 12.1 C 87 % 10 C
1928 23-02-2020 16:35:00 12.1 C 87 % 10 C
1929 23-02-2020 16:40:00 12.1 C 87 % 10 C
1930 23-02-2020 16:45:00 12.1 C 87 % 10 C
1931 23-02-2020 16:50:00 12.1 C 87 % 10 C
1932 23-02-2020 16:55:00 12.1 C 86 % 9.83 C
1933 23-02-2020 17:00:00 12.1 C 87 % 10 C
1934 23-02-2020 17:05:00 12.1 C 86 % 9.83 C
1935 23-02-2020 17:10:00 12.2 C 86 % 9.93 C
1936 23-02-2020 17:15:00 12.2 C 87 % 10.1 C
1937 23-02-2020 17:20:00 12.1 C 87 % 10 C
1938 23-02-2020 17:25:00 12.1 C 88 % 10.17 C
1939 23-02-2020 17:30:00 11.9 C 88 % 9.98 C
1940 23-02-2020 17:35:00 11.8 C 89 % 10.05 C
1941 23-02-2020 17:40:00 11.7 C 90 % 10.12 C
1942 23-02-2020 17:45:00 11.6 C 91 % 10.18 C
1943 23-02-2020 17:50:00 11.5 C 91 % 10.08 C
1944 23-02-2020 17:55:00 11.5 C 91 % 10.08 C
1945 23-02-2020 18:00:00 11.4 C 91 % 9.98 C
1946 23-02-2020 18:05:00 11.4 C 91 % 9.98 C
1947 23-02-2020 18:10:00 11.5 C 92 % 10.25 C
1948 23-02-2020 18:15:00 11.5 C 91 % 10.08 C
1949 23-02-2020 18:20:00 11.4 C 92 % 10.15 C
1950 23-02-2020 18:25:00 11.4 C 92 % 10.15 C
Sensor: Nr:Datum:Temp:Feuchte:Taupunkt:
Aussen-T/F 1951 23-02-2020 18:30:00 11.3 C 93 % 10.21 C
1952 23-02-2020 18:35:00 11.3 C 93 % 10.21 C
1953 23-02-2020 18:40:00 11.3 C 93 % 10.21 C
1954 23-02-2020 18:45:00 11.2 C 94 % 10.27 C
1955 23-02-2020 18:50:00 11.2 C 94 % 10.27 C
1956 23-02-2020 18:55:00 11.2 C 94 % 10.27 C
1957 23-02-2020 19:00:00 11.2 C 94 % 10.27 C
1958 23-02-2020 19:05:00 11.2 C 94 % 10.27 C
1959 23-02-2020 19:10:00 11.2 C 94 % 10.27 C
1960 23-02-2020 19:15:00 11.2 C 94 % 10.27 C
1961 23-02-2020 19:20:00 11.2 C 94 % 10.27 C
1962 23-02-2020 19:25:00 11.3 C 94 % 10.37 C
1963 23-02-2020 19:30:00 11.4 C 94 % 10.47 C
1964 23-02-2020 19:35:00 10.7 C 91 % 9.29 C
1965 23-02-2020 19:40:00 10.1 C 91 % 8.7 C
1966 23-02-2020 19:45:00 9.7 C 92 % 8.46 C
1967 23-02-2020 19:50:00 9.4 C 92 % 8.17 C
1968 23-02-2020 19:55:00 9.2 C 92 % 7.97 C
1969 23-02-2020 20:00:00 9 C 92 % 7.77 C
1970 23-02-2020 20:05:00 8.8 C 92 % 7.57 C
1971 23-02-2020 20:10:00 8.7 C 92 % 7.47 C
1972 23-02-2020 20:15:00 8.7 C 92 % 7.47 C
1973 23-02-2020 20:20:00 8.6 C 92 % 7.38 C
1974 23-02-2020 20:25:00 8.6 C 91 % 7.22 C
1975 23-02-2020 20:30:00 8.5 C 91 % 7.12 C
Sensor: Nr:Datum:Temp:Feuchte:Taupunkt:
Aussen-T/F 1976 23-02-2020 20:35:00 8.5 C 91 % 7.12 C
1977 23-02-2020 20:40:00 8.5 C 91 % 7.12 C
1978 23-02-2020 20:45:00 8.5 C 91 % 7.12 C
1979 23-02-2020 20:50:00 8.4 C 90 % 6.86 C
1980 23-02-2020 20:55:00 8.4 C 90 % 6.86 C
1981 23-02-2020 21:00:00 8.4 C 90 % 6.86 C
1982 23-02-2020 21:05:00 8.4 C 90 % 6.86 C
1983 23-02-2020 21:10:00 8.4 C 89 % 6.7 C
1984 23-02-2020 21:15:00 8.4 C 89 % 6.7 C
1985 23-02-2020 21:20:00 8.3 C 89 % 6.6 C
1986 23-02-2020 21:25:00 8.2 C 88 % 6.33 C
1987 23-02-2020 21:30:00 8.3 C 88 % 6.43 C
1988 23-02-2020 21:35:00 8.3 C 87 % 6.27 C
1989 23-02-2020 21:40:00 8.3 C 87 % 6.27 C
1990 23-02-2020 21:45:00 8.3 C 87 % 6.27 C
1991 23-02-2020 21:50:00 8.2 C 87 % 6.17 C
1992 23-02-2020 21:55:00 8.2 C 88 % 6.33 C
1993 23-02-2020 22:00:00 8.2 C 88 % 6.33 C
1994 23-02-2020 22:05:00 8.2 C 88 % 6.33 C
1995 23-02-2020 22:10:00 8.2 C 87 % 6.17 C
1996 23-02-2020 22:15:00 8.3 C 86 % 6.1 C
1997 23-02-2020 22:20:00 8.3 C 86 % 6.1 C
1998 23-02-2020 22:25:00 8.3 C 85 % 5.93 C
1999 23-02-2020 22:30:00 8.2 C 84 % 5.66 C
2000 23-02-2020 22:35:00 8.2 C 83 % 5.49 C
Sensor: Nr:Datum:Temp:Feuchte:Taupunkt:
Aussen-T/F 2001 23-02-2020 22:40:00 8.2 C 83 % 5.49 C
2002 23-02-2020 22:45:00 8.1 C 83 % 5.39 C
2003 23-02-2020 22:50:00 8 C 82 % 5.12 C
2004 23-02-2020 22:55:00 7.9 C 82 % 5.02 C
2005 23-02-2020 23:00:00 7.8 C 81 % 4.75 C
2006 23-02-2020 23:05:00 7.8 C 81 % 4.75 C
2007 23-02-2020 23:10:00 7.7 C 82 % 4.83 C
2008 23-02-2020 23:15:00 7.6 C 83 % 4.9 C
2009 23-02-2020 23:20:00 7.5 C 84 % 4.98 C
2010 23-02-2020 23:25:00 7.4 C 83 % 4.71 C
2011 23-02-2020 23:30:00 7.4 C 80 % 4.18 C
2012 23-02-2020 23:35:00 7.4 C 80 % 4.18 C
2013 23-02-2020 23:40:00 7.5 C 79 % 4.1 C
2014 23-02-2020 23:45:00 7.5 C 78 % 3.92 C
2015 23-02-2020 23:50:00 7.5 C 78 % 3.92 C
2016 23-02-2020 23:55:00 7.5 C 80 % 4.28 C

Legende:
   Min
   Max


Maximal/Minimal-Werte vom 17.02.2020 - 23.02.2020

Sensor Min Max Avg
Temp
(Aussen-T/F)
2.3 °C
21-02-2020  06:45:00
12.2 °C
23-02-2020  15:10:00
7.71 °C
Feuchte
(Aussen-T/F)
61 %
19-02-2020  16:15:00
94 %
17-02-2020  21:30:00
81.51 %
Taupunkt
(Aussen-T/F)
0.27 C
19-02-2020  20:15:00
10.47 C
23-02-2020  19:30:00
4.7 C

Die Daten stammen von einer Davis Vantage Pro 2 Wetter-Station und werden unter Linux mit der Software wview2wettercgi und aufbereitet. Alle Angaben erfolgen ohne Gewähr für ihre Vollständigkeit oder Richtigkeit.
Kontakt: Rainer Krienke krienke@uni-koblenz.de . Meine Webseiten an der Uni Koblenz oder privat.
Version: $Revision: 0.78 $